| time (UTC) | temp F | wind direction | speed knots | gust knots | rain 1hr in | rain 24hr in | rain mn in | humidity % | barometer mb |
| 20260509224402 | 60 | 159 | 0.9 | 1.7 | 0.00 | 0.20 | 0.20 | 83 | 1007.4 |
| 20260509224200 | 60 | 153 | 0.0 | 2.6 | 0.00 | 0.20 | 0.20 | 83 | 1007.4 |
| 20260509223801 | 61 | 153 | 0.0 | 2.6 | 0.00 | 0.20 | 0.20 | 84 | 1007.5 |
| 20260509223701 | 61 | 153 | 0.0 | 2.6 | 0.00 | 0.20 | 0.20 | 84 | 1007.4 |
| 20260509223600 | 61 | 153 | 0.0 | 2.6 | 0.00 | 0.20 | 0.20 | 83 | 1007.4 |
| 20260509223505 | 61 | 153 | 0.0 | 2.6 | 0.00 | 0.20 | 0.20 | 83 | 1007.4 |
| 20260509223401 | 61 | 153 | 0.9 | 2.6 | 0.00 | 0.20 | 0.20 | 82 | 1007.4 |
| 20260509223301 | 61 | 153 | 0.0 | 2.6 | 0.00 | 0.20 | 0.20 | 82 | 1007.4 |
| 20260509223202 | 61 | 153 | 2.6 | 2.6 | 0.00 | 0.20 | 0.20 | 82 | 1007.4 |
| 20260509223100 | 61 | 150 | 0.9 | 2.6 | 0.00 | 0.20 | 0.20 | 83 | 1007.4 |
| 20260509222901 | 61 | 146 | 0.0 | 2.6 | 0.00 | 0.20 | 0.20 | 83 | 1007.4 |
| 20260509222800 | 61 | 146 | 0.0 | 2.6 | 0.00 | 0.20 | 0.20 | 83 | 1007.4 |
| 20260509222702 | 61 | 146 | 0.9 | 2.6 | 0.00 | 0.20 | 0.20 | 82 | 1007.4 |
| 20260509222601 | 61 | 146 | 1.7 | 4.3 | 0.00 | 0.20 | 0.20 | 82 | 1007.5 |
| 20260509222505 | 61 | 146 | 0.9 | 4.3 | 0.00 | 0.20 | 0.20 | 83 | 1007.5 |
| 20260509222401 | 61 | 146 | 1.7 | 4.3 | 0.00 | 0.20 | 0.20 | 83 | 1007.5 |
| 20260509222200 | 61 | 146 | 1.7 | 4.3 | 0.00 | 0.20 | 0.20 | 83 | 1007.5 |
| 20260509222102 | 61 | 146 | 0.9 | 4.3 | 0.00 | 0.20 | 0.20 | 83 | 1007.5 |
| 20260509222005 | 61 | 146 | 0.9 | 4.3 | 0.00 | 0.20 | 0.20 | 83 | 1007.5 |
| 20260509221901 | 61 | 146 | 0.9 | 4.3 | 0.00 | 0.20 | 0.20 | 83 | 1007.5 |
| 20260509221803 | 61 | 146 | 1.7 | 4.3 | 0.00 | 0.20 | 0.20 | 83 | 1007.5 |
| 20260509221701 | 61 | 146 | 1.7 | 4.3 | 0.00 | 0.20 | 0.20 | 83 | 1007.5 |
| 20260509221603 | 61 | 141 | 0.0 | 3.5 | 0.00 | 0.20 | 0.20 | 84 | 1007.5 |
| 20260509221359 | 60 | 139 | 2.6 | 3.5 | 0.00 | 0.20 | 0.20 | 84 | 1007.5 |
| 20260509221201 | 60 | 123 | 1.7 | 3.5 | 0.00 | 0.20 | 0.20 | 85 | 1007.5 |
| 20260509221102 | 60 | 123 | 0.9 | 3.5 | 0.00 | 0.20 | 0.20 | 85 | 1007.4 |
| 20260509221005 | 60 | 123 | 0.0 | 3.5 | 0.00 | 0.20 | 0.20 | 86 | 1007.4 |
| 20260509220901 | 60 | 123 | 0.0 | 3.5 | 0.00 | 0.20 | 0.20 | 85 | 1007.4 |
| 20260509220801 | 60 | 123 | 1.7 | 3.5 | 0.00 | 0.20 | 0.20 | 85 | 1007.4 |
| 20260509220701 | 60 | 125 | 1.7 | 2.6 | 0.00 | 0.20 | 0.20 | 85 | 1007.4 |
| 20260509220602 | 60 | 125 | 0.9 | 3.5 | 0.00 | 0.20 | 0.20 | 86 | 1007.4 |
| 20260509220505 | 60 | 125 | 1.7 | 3.5 | 0.00 | 0.20 | 0.20 | 85 | 1007.4 |
| 20260509220003 | 60 | 125 | 0.0 | 3.5 | 0.00 | 0.20 | 0.20 | 85 | 1007.4 |
| 20260509215800 | 60 | 125 | 1.7 | 3.5 | 0.00 | 0.20 | 0.20 | 86 | 1007.5 |
| 20260509215659 | 60 | 97 | 2.6 | 4.3 | 0.00 | 0.20 | 0.20 | 86 | 1007.5 |
| 20260509215600 | 60 | 158 | 2.6 | 4.3 | 0.00 | 0.20 | 0.20 | 87 | 1007.5 |
| 20260509215505 | 60 | 158 | 1.7 | 4.3 | 0.00 | 0.20 | 0.20 | 87 | 1007.5 |
| 20260509215259 | 60 | 158 | 0.0 | 4.3 | 0.00 | 0.20 | 0.20 | 87 | 1007.5 |
| 20260509215201 | 60 | 158 | 1.7 | 4.3 | 0.00 | 0.20 | 0.20 | 87 | 1007.5 |
| 20260509215059 | 60 | 160 | 0.9 | 2.6 | 0.00 | 0.20 | 0.20 | 87 | 1007.5 |
| 20260509215005 | 60 | 160 | 0.0 | 2.6 | 0.00 | 0.20 | 0.20 | 86 | 1007.6 |
| 20260509214801 | 60 | 160 | 0.0 | 2.6 | 0.00 | 0.20 | 0.20 | 87 | 1007.6 |
| 20260509214701 | 60 | 160 | 0.0 | 2.6 | 0.00 | 0.20 | 0.20 | 87 | 1007.6 |
| 20260509214600 | 60 | 160 | 0.0 | 2.6 | 0.00 | 0.20 | 0.20 | 87 | 1007.6 |
| 20260509214504 | 60 | 160 | 3.5 | 3.5 | 0.00 | 0.20 | 0.20 | 87 | 1007.6 |
| 20260509214358 | 60 | 159 | 1.7 | 1.7 | 0.00 | 0.20 | 0.20 | 88 | 1007.6 |
| 20260509214300 | 60 | 159 | 0.0 | 4.3 | 0.00 | 0.20 | 0.20 | 87 | 1007.6 |
| 20260509214201 | 59 | 160 | 0.0 | 4.3 | 0.00 | 0.20 | 0.20 | 87 | 1007.6 |
| 20260509214059 | 59 | 160 | 0.0 | 4.3 | 0.00 | 0.20 | 0.20 | 87 | 1007.7 |
| 20260509214004 | 59 | 160 | 1.7 | 4.3 | 0.00 | 0.20 | 0.20 | 87 | 1007.7 |
| 20260509213859 | 59 | 160 | 0.9 | 4.3 | 0.00 | 0.20 | 0.20 | 87 | 1007.7 |
| 20260509213759 | 59 | 160 | 0.0 | 4.3 | 0.00 | 0.20 | 0.20 | 88 | 1007.7 |
| 20260509213700 | 59 | 160 | 0.0 | 4.3 | 0.00 | 0.20 | 0.20 | 87 | 1007.7 |
| 20260509213600 | 59 | 160 | 0.0 | 4.3 | 0.00 | 0.20 | 0.20 | 89 | 1007.7 |
| 20260509213504 | 59 | 160 | 0.9 | 4.3 | 0.00 | 0.20 | 0.20 | 89 | 1007.7 |
| 20260509213401 | 59 | 160 | 1.7 | 4.3 | 0.00 | 0.20 | 0.20 | 89 | 1007.7 |
| 20260509213300 | 59 | 160 | 4.3 | 4.3 | 0.00 | 0.20 | 0.20 | 89 | 1007.8 |
| 20260509213200 | 59 | 159 | 1.7 | 3.5 | 0.00 | 0.20 | 0.20 | 89 | 1007.8 |
| 20260509213101 | 59 | 119 | 0.9 | 3.5 | 0.00 | 0.20 | 0.20 | 89 | 1007.8 |
| 20260509213006 | 59 | 92 | 3.5 | 3.5 | 0.00 | 0.20 | 0.20 | 89 | 1007.8 |
| 20260509212901 | 59 | 100 | 0.0 | 1.7 | 0.00 | 0.20 | 0.20 | 89 | 1007.9 |
| 20260509212801 | 59 | 99 | 0.9 | 1.7 | 0.00 | 0.20 | 0.20 | 89 | 1007.9 |
| 20260509212700 | 59 | 99 | 0.0 | 1.7 | 0.00 | 0.20 | 0.20 | 89 | 1007.9 |
| 20260509212600 | 59 | 100 | 0.0 | 3.5 | 0.00 | 0.20 | 0.20 | 90 | 1007.9 |
| 20260509212505 | 59 | 100 | 1.7 | 3.5 | 0.00 | 0.20 | 0.20 | 90 | 1007.9 |
| 20260509212300 | 59 | 100 | 0.0 | 3.5 | 0.00 | 0.20 | 0.20 | 91 | 1007.9 |
| 20260509212200 | 59 | 100 | 0.0 | 3.5 | 0.00 | 0.20 | 0.20 | 91 | 1007.8 |
| 20260509212101 | 59 | 100 | 0.9 | 3.5 | 0.00 | 0.20 | 0.20 | 91 | 1007.8 |
| 20260509212006 | 59 | 99 | 0.9 | 3.5 | 0.00 | 0.20 | 0.20 | 91 | 1007.9 |
| 20260509211800 | 59 | 99 | 0.0 | 3.5 | 0.00 | 0.20 | 0.20 | 91 | 1007.9 |
| 20260509211700 | 59 | 99 | 0.9 | 3.5 | 0.00 | 0.20 | 0.20 | 91 | 1007.9 |
| 20260509211600 | 59 | 100 | 2.6 | 3.5 | 0.00 | 0.20 | 0.20 | 91 | 1007.9 |
| 20260509211506 | 59 | 101 | 0.0 | 3.5 | 0.00 | 0.20 | 0.20 | 91 | 1007.9 |
| 20260509211359 | 59 | 101 | 1.7 | 3.5 | 0.00 | 0.20 | 0.20 | 92 | 1007.9 |
| 20260509211300 | 59 | 101 | 0.9 | 4.3 | 0.00 | 0.20 | 0.20 | 92 | 1008.0 |
| 20260509211159 | 59 | 97 | 2.6 | 4.3 | 0.00 | 0.20 | 0.20 | 93 | 1007.9 |
| 20260509211100 | 59 | 138 | 2.6 | 4.3 | 0.00 | 0.20 | 0.20 | 93 | 1008.0 |
| 20260509211005 | 59 | 88 | 0.0 | 4.3 | 0.00 | 0.20 | 0.20 | 93 | 1008.0 |
| 20260509210901 | 59 | 88 | 0.0 | 4.3 | 0.00 | 0.20 | 0.20 | 93 | 1008.0 |
| 20260509210801 | 59 | 88 | 0.0 | 4.3 | 0.00 | 0.20 | 0.20 | 93 | 1008.0 |
| 20260509210700 | 59 | 88 | 0.0 | 4.3 | 0.00 | 0.20 | 0.20 | 93 | 1008.0 |
| 20260509210504 | 59 | 81 | 0.9 | 4.3 | 0.00 | 0.20 | 0.20 | 93 | 1008.0 |
| 20260509210359 | 59 | 63 | 2.6 | 6.1 | 0.00 | 0.20 | 0.20 | 94 | 1008.0 |
| 20260509210259 | 59 | 59 | 0.9 | 6.1 | 0.00 | 0.20 | 0.20 | 94 | 1008.0 |
| 20260509210159 | 59 | 65 | 0.9 | 6.1 | 0.00 | 0.20 | 0.20 | 94 | 1008.1 |
| 20260509210059 | 59 | 71 | 0.9 | 6.1 | 0.00 | 0.20 | 0.20 | 94 | 1008.0 |
| 20260509210004 | 59 | 127 | 2.6 | 6.1 | 0.00 | 0.20 | 0.20 | 94 | 1008.1 |
| 20260509205902 | 59 | 144 | 2.6 | 6.1 | 0.00 | 0.20 | 0.20 | 94 | 1008.0 |
| 20260509205801 | 59 | 130 | 0.9 | 6.1 | 0.00 | 0.20 | 0.20 | 95 | 1008.0 |
| 20260509205701 | 59 | 139 | 2.6 | 6.1 | 0.00 | 0.20 | 0.20 | 95 | 1008.0 |
| 20260509205600 | 59 | 148 | 2.6 | 6.1 | 0.00 | 0.20 | 0.20 | 95 | 1008.0 |
| 20260509205401 | 59 | 192 | 0.0 | 4.3 | 0.00 | 0.20 | 0.20 | 95 | 1008.0 |
| 20260509205301 | 59 | 192 | 0.9 | 4.3 | 0.00 | 0.20 | 0.20 | 95 | 1008.1 |
| 20260509205201 | 59 | 69 | 0.9 | 4.3 | 0.00 | 0.20 | 0.20 | 95 | 1008.1 |
| 20260509204902 | 58 | 63 | 1.7 | 3.5 | 0.00 | 0.20 | 0.20 | 95 | 1008.1 |
| 20260509204801 | 58 | 126 | 0.9 | 4.3 | 0.00 | 0.20 | 0.20 | 95 | 1008.2 |
| 20260509204702 | 58 | 126 | 2.6 | 4.3 | 0.00 | 0.20 | 0.20 | 95 | 1008.2 |
| 20260509204601 | 58 | 149 | 1.7 | 4.3 | 0.00 | 0.20 | 0.20 | 95 | 1008.2 |
| 20260509204505 | 58 | 150 | 2.6 | 3.5 | 0.00 | 0.20 | 0.20 | 95 | 1008.3 |
| 20260509204401 | 58 | 80 | 0.9 | 2.6 | 0.00 | 0.20 | 0.20 | 95 | 1008.2 |
| 20260509204302 | 58 | 80 | 0.9 | 1.7 | 0.00 | 0.20 | 0.20 | 95 | 1008.3 |
| 20260509204201 | 58 | 80 | 1.7 | 1.7 | 0.00 | 0.20 | 0.20 | 95 | 1008.3 |
| 20260509204101 | 58 | 80 | 0.0 | 1.7 | 0.00 | 0.20 | 0.20 | 95 | 1008.3 |
| 20260509204005 | 58 | 80 | 0.9 | 1.7 | 0.00 | 0.20 | 0.20 | 95 | 1008.3 |
| 20260509203901 | 58 | 80 | 0.9 | 1.7 | 0.00 | 0.20 | 0.20 | 95 | 1008.3 |
| 20260509203801 | 58 | 80 | 0.0 | 1.7 | 0.00 | 0.20 | 0.20 | 95 | 1008.3 |
| 20260509203601 | 57 | 80 | 0.9 | 1.7 | 0.00 | 0.20 | 0.20 | 95 | 1008.4 |
| 20260509203505 | 57 | 80 | 0.9 | 1.7 | 0.00 | 0.20 | 0.20 | 95 | 1008.4 |
| 20260509203401 | 57 | 80 | 0.0 | 1.7 | 0.00 | 0.20 | 0.20 | 95 | 1008.4 |
| 20260509203302 | 57 | 80 | 0.0 | 1.7 | 0.00 | 0.20 | 0.20 | 95 | 1008.4 |
| 20260509203101 | 57 | 80 | 0.0 | 1.7 | 0.00 | 0.20 | 0.20 | 95 | 1008.5 |
| 20260509203006 | 57 | 80 | 0.9 | 1.7 | 0.00 | 0.20 | 0.20 | 95 | 1008.5 |
| 20260509202902 | 57 | 80 | 0.9 | 2.6 | 0.00 | 0.20 | 0.20 | 95 | 1008.5 |
| 20260509202802 | 57 | 80 | 0.0 | 3.5 | 0.00 | 0.20 | 0.20 | 95 | 1008.5 |
| 20260509202701 | 57 | 80 | 0.9 | 3.5 | 0.00 | 0.20 | 0.20 | 95 | 1008.5 |
| 20260509202600 | 57 | 80 | 0.9 | 3.5 | 0.00 | 0.20 | 0.20 | 95 | 1008.5 |
| 20260509202507 | 57 | 80 | 0.0 | 3.5 | 0.00 | 0.20 | 0.20 | 95 | 1008.6 |
| 20260509202400 | 57 | 80 | 0.0 | 3.5 | 0.00 | 0.20 | 0.20 | 95 | 1008.5 |
| 20260509202100 | 57 | 80 | 0.0 | 3.5 | 0.00 | 0.20 | 0.20 | 95 | 1008.5 |
| 20260509202004 | 57 | 80 | 0.9 | 3.5 | 0.00 | 0.20 | 0.20 | 95 | 1008.5 |
| 20260509201900 | 57 | 80 | 1.7 | 3.5 | 0.00 | 0.20 | 0.20 | 95 | 1008.4 |
| 20260509201800 | 57 | 80 | 1.7 | 2.6 | 0.00 | 0.20 | 0.20 | 95 | 1008.4 |
| 20260509201701 | 57 | 80 | 0.9 | 2.6 | 0.00 | 0.20 | 0.20 | 95 | 1008.4 |
| 20260509201505 | 57 | 80 | 1.7 | 1.7 | 0.00 | 0.20 | 0.20 | 95 | 1008.4 |
| 20260509201400 | 57 | 80 | 0.9 | 1.7 | 0.00 | 0.20 | 0.20 | 95 | 1008.3 |
| 20260509201301 | 57 | 80 | 0.9 | 1.7 | 0.00 | 0.20 | 0.20 | 95 | 1008.3 |
| 20260509201101 | 57 | 80 | 0.0 | 1.7 | 0.00 | 0.20 | 0.20 | 95 | 1008.3 |
| 20260509200901 | 57 | 80 | 0.0 | 1.7 | 0.00 | 0.20 | 0.20 | 95 | 1008.3 |
| 20260509200801 | 57 | 80 | 0.9 | 1.7 | 0.00 | 0.20 | 0.20 | 95 | 1008.2 |
| 20260509200700 | 57 | 80 | 0.9 | 1.7 | 0.00 | 0.20 | 0.20 | 95 | 1008.2 |
| 20260509200601 | 57 | 80 | 0.9 | 0.9 | 0.00 | 0.20 | 0.20 | 95 | 1008.2 |
| 20260509200401 | 57 | 80 | 0.0 | 0.9 | 0.00 | 0.20 | 0.20 | 95 | 1008.2 |
| 20260509200303 | 57 | 80 | 0.0 | 1.7 | 0.00 | 0.20 | 0.20 | 95 | 1008.2 |
| 20260509200201 | 57 | 80 | 0.0 | 1.7 | 0.00 | 0.20 | 0.20 | 95 | 1008.1 |
| 20260509200101 | 57 | 80 | 0.0 | 1.7 | 0.00 | 0.20 | 0.20 | 95 | 1008.1 |
| 20260509200006 | 57 | 80 | 0.0 | 1.7 | 0.00 | 0.20 | 0.20 | 95 | 1008.1 |
| 20260509195901 | 57 | 80 | 0.0 | 1.7 | 0.00 | 0.20 | 0.20 | 95 | 1008.1 |
| 20260509195801 | 57 | 80 | 0.0 | 2.6 | 0.00 | 0.20 | 0.20 | 95 | 1008.1 |
| 20260509195700 | 57 | 80 | 0.0 | 2.6 | 0.00 | 0.20 | 0.20 | 95 | 1008.1 |
| 20260509195603 | 57 | 80 | 0.0 | 2.6 | 0.00 | 0.20 | 0.20 | 95 | 1008.1 |
| 20260509195504 | 57 | 80 | 0.9 | 2.6 | 0.00 | 0.20 | 0.20 | 95 | 1008.1 |
| 20260509195402 | 57 | 80 | 0.9 | 2.6 | 0.00 | 0.20 | 0.20 | 95 | 1008.2 |
| 20260509195201 | 57 | 80 | 0.9 | 2.6 | 0.00 | 0.20 | 0.20 | 95 | 1008.3 |
| 20260509194902 | 57 | 80 | 0.9 | 2.6 | 0.00 | 0.20 | 0.20 | 95 | 1008.4 |
| 20260509194702 | 57 | 80 | 0.0 | 2.6 | 0.00 | 0.20 | 0.20 | 95 | 1008.5 |
| 20260509194600 | 57 | 80 | 0.9 | 2.6 | 0.00 | 0.20 | 0.20 | 95 | 1008.6 |
| 20260509194505 | 57 | 80 | 0.0 | 2.6 | 0.00 | 0.20 | 0.20 | 95 | 1008.6 |
| 20260509194401 | 57 | 80 | 1.7 | 2.6 | 0.00 | 0.20 | 0.20 | 95 | 1008.6 |
| 20260509194300 | 57 | 80 | 0.9 | 2.6 | 0.00 | 0.20 | 0.20 | 94 | 1008.6 |
| 20260509194202 | 57 | 80 | 1.7 | 2.6 | 0.00 | 0.20 | 0.20 | 94 | 1008.6 |
| 20260509194102 | 57 | 80 | 0.9 | 2.6 | 0.00 | 0.20 | 0.20 | 94 | 1008.5 |
| 20260509194005 | 57 | 80 | 2.6 | 2.6 | 0.00 | 0.20 | 0.20 | 94 | 1008.6 |
| 20260509193902 | 57 | 80 | 1.7 | 2.6 | 0.00 | 0.20 | 0.20 | 94 | 1008.6 |
| 20260509193801 | 57 | 80 | 1.7 | 2.6 | 0.00 | 0.20 | 0.20 | 94 | 1008.6 |
| 20260509193702 | 57 | 80 | 1.7 | 2.6 | 0.00 | 0.20 | 0.20 | 94 | 1008.6 |
| 20260509193600 | 57 | 80 | 0.0 | 1.7 | 0.00 | 0.20 | 0.20 | 94 | 1008.7 |
| 20260509193504 | 57 | 80 | 1.7 | 1.7 | 0.00 | 0.20 | 0.20 | 94 | 1008.6 |
| 20260509193402 | 57 | 80 | 0.0 | 1.7 | 0.00 | 0.20 | 0.20 | 94 | 1008.6 |
| 20260509193301 | 57 | 80 | 0.0 | 2.6 | 0.00 | 0.20 | 0.20 | 94 | 1008.6 |
| 20260509193006 | 57 | 80 | 0.9 | 4.3 | 0.00 | 0.20 | 0.20 | 93 | 1008.7 |
| 20260509192902 | 57 | 80 | 0.0 | 4.3 | 0.00 | 0.20 | 0.20 | 93 | 1008.7 |
| 20260509192801 | 57 | 80 | 1.7 | 4.3 | 0.00 | 0.20 | 0.20 | 93 | 1008.8 |
| 20260509192602 | 57 | 80 | 0.9 | 4.3 | 0.00 | 0.20 | 0.20 | 93 | 1008.9 |
| 20260509192401 | 57 | 80 | 2.6 | 4.3 | 0.00 | 0.20 | 0.20 | 93 | 1008.9 |
| 20260509192301 | 57 | 80 | 2.6 | 4.3 | 0.00 | 0.20 | 0.20 | 93 | 1008.9 |
| 20260509192201 | 57 | 76 | 1.7 | 4.3 | 0.00 | 0.20 | 0.20 | 93 | 1008.9 |
| 20260509192104 | 58 | 84 | 2.6 | 3.5 | 0.00 | 0.20 | 0.20 | 93 | 1008.9 |
| 20260509192005 | 58 | 85 | 0.9 | 3.5 | 0.00 | 0.20 | 0.20 | 93 | 1008.9 |
| 20260509191802 | 58 | 85 | 0.0 | 3.5 | 0.00 | 0.20 | 0.20 | 94 | 1008.9 |
| 20260509191701 | 58 | 85 | 0.0 | 3.5 | 0.00 | 0.20 | 0.20 | 94 | 1009.0 |
| 20260509191602 | 58 | 85 | 0.0 | 3.5 | 0.00 | 0.20 | 0.20 | 94 | 1009.0 |
| 20260509191507 | 58 | 85 | 1.7 | 3.5 | 0.00 | 0.20 | 0.20 | 94 | 1009.0 |
| 20260509191401 | 58 | 92 | 0.9 | 3.5 | 0.00 | 0.20 | 0.20 | 94 | 1009.0 |
| 20260509191302 | 58 | 92 | 2.6 | 3.5 | 0.00 | 0.20 | 0.20 | 94 | 1009.1 |
| 20260509191200 | 58 | 103 | 0.9 | 2.6 | 0.00 | 0.20 | 0.20 | 94 | 1009.1 |
| 20260509191004 | 58 | 103 | 1.7 | 2.6 | 0.00 | 0.20 | 0.20 | 95 | 1009.0 |
| 20260509190901 | 58 | 103 | 0.9 | 2.6 | 0.00 | 0.20 | 0.20 | 95 | 1009.0 |
| 20260509190802 | 58 | 142 | 0.9 | 2.6 | 0.00 | 0.20 | 0.20 | 95 | 1009.0 |
| 20260509190701 | 58 | 142 | 0.0 | 2.6 | 0.00 | 0.20 | 0.20 | 95 | 1009.1 |
| 20260509190401 | 57 | 144 | 0.0 | 2.6 | 0.00 | 0.20 | 0.20 | 94 | 1009.2 |
| 20260509190302 | 57 | 144 | 0.9 | 2.6 | 0.00 | 0.20 | 0.20 | 94 | 1009.2 |
| 20260509190202 | 57 | 144 | 0.0 | 2.6 | 0.00 | 0.20 | 0.20 | 95 | 1009.2 |
| 20260509190006 | 58 | 144 | 0.9 | 2.6 | 0.00 | 0.20 | 0.20 | 95 | 1009.2 |
| 20260509185900 | 58 | 144 | 0.9 | 1.7 | 0.00 | 0.20 | 0.20 | 95 | 1009.3 |
| 20260509185700 | 58 | 144 | 0.9 | 1.7 | 0.00 | 0.20 | 0.20 | 95 | 1009.4 |
| 20260509185559 | 58 | 144 | 0.0 | 0.0 | 0.00 | 0.20 | 0.20 | 95 | 1009.5 |
| 20260509185505 | 58 | 144 | 0.0 | 0.0 | 0.00 | 0.20 | 0.20 | 95 | 1009.5 |
| 20260509185401 | 57 | 144 | 0.0 | 0.9 | 0.00 | 0.20 | 0.20 | 95 | 1009.5 |
| 20260509185300 | 57 | 144 | 0.0 | 0.9 | 0.00 | 0.20 | 0.20 | 95 | 1009.6 |
| 20260509185201 | 57 | 144 | 0.0 | 0.9 | 0.00 | 0.20 | 0.20 | 95 | 1009.5 |
| 20260509185100 | 57 | 144 | 0.0 | 0.9 | 0.00 | 0.20 | 0.20 | 95 | 1009.5 |
| 20260509185005 | 57 | 144 | 0.0 | 0.9 | 0.00 | 0.20 | 0.20 | 95 | 1009.5 |
| 20260509184859 | 57 | 144 | 0.0 | 0.9 | 0.00 | 0.20 | 0.20 | 95 | 1009.5 |
| 20260509184802 | 57 | 145 | 0.0 | 1.7 | 0.00 | 0.20 | 0.20 | 95 | 1009.5 |
| 20260509184700 | 57 | 144 | 0.0 | 1.7 | 0.00 | 0.20 | 0.20 | 95 | 1009.6 |
| 20260509184601 | 56 | 144 | 0.0 | 1.7 | 0.00 | 0.20 | 0.20 | 95 | 1009.6 |
| 20260509184501 | 56 | 144 | 0.0 | 1.7 | 0.00 | 0.20 | 0.20 | 95 | 1009.7 |
| 20260509184400 | 56 | 144 | 0.0 | 1.7 | 0.00 | 0.20 | 0.20 | 95 | 1009.7 |
| 20260509184300 | 56 | 144 | 0.0 | 1.7 | 0.00 | 0.20 | 0.20 | 95 | 1009.6 |
| 20260509184159 | 56 | 144 | 0.0 | 1.7 | 0.00 | 0.20 | 0.20 | 95 | 1009.6 |
| 20260509184100 | 56 | 144 | 0.0 | 1.7 | 0.00 | 0.20 | 0.20 | 95 | 1009.6 |
| 20260509184002 | 56 | 144 | 0.0 | 1.7 | 0.00 | 0.20 | 0.20 | 95 | 1009.6 |
| 20260509183659 | 56 | 144 | 0.0 | 1.7 | 0.00 | 0.20 | 0.20 | 95 | 1009.5 |
| 20260509183603 | 56 | 144 | 0.9 | 1.7 | 0.00 | 0.20 | 0.20 | 95 | 1009.5 |
| 20260509183504 | 56 | 144 | 0.0 | 1.7 | 0.00 | 0.20 | 0.20 | 95 | 1009.5 |
| 20260509183359 | 56 | 144 | 0.0 | 1.7 | 0.00 | 0.20 | 0.20 | 95 | 1009.4 |
| 20260509183301 | 56 | 144 | 0.0 | 1.7 | 0.00 | 0.20 | 0.20 | 95 | 1009.4 |
| 20260509183159 | 56 | 144 | 0.0 | 1.7 | 0.00 | 0.20 | 0.20 | 95 | 1009.4 |
| 20260509183101 | 56 | 144 | 0.0 | 1.7 | 0.00 | 0.20 | 0.20 | 95 | 1009.4 |
| 20260509183006 | 56 | 144 | 0.9 | 2.6 | 0.00 | 0.20 | 0.20 | 95 | 1009.3 |
| 20260509182859 | 56 | 144 | 0.0 | 2.6 | 0.00 | 0.20 | 0.20 | 95 | 1009.3 |
| 20260509182800 | 56 | 144 | 0.0 | 2.6 | 0.00 | 0.20 | 0.20 | 95 | 1009.3 |
| 20260509182659 | 56 | 144 | 0.0 | 2.6 | 0.00 | 0.20 | 0.20 | 95 | 1009.4 |
| 20260509182503 | 56 | 144 | 0.0 | 2.6 | 0.00 | 0.20 | 0.20 | 95 | 1009.3 |
| 20260509182359 | 56 | 144 | 1.7 | 2.6 | 0.00 | 0.20 | 0.20 | 95 | 1009.3 |
| 20260509182300 | 56 | 144 | 0.0 | 2.6 | 0.00 | 0.20 | 0.20 | 95 | 1009.3 |
| 20260509182159 | 56 | 144 | 0.0 | 2.6 | 0.00 | 0.20 | 0.20 | 95 | 1009.3 |
| 20260509182100 | 56 | 144 | 0.0 | 2.6 | 0.00 | 0.20 | 0.20 | 95 | 1009.3 |
| 20260509182006 | 56 | 144 | 0.0 | 1.7 | 0.00 | 0.20 | 0.20 | 95 | 1009.3 |
| 20260509181859 | 56 | 144 | 0.9 | 1.7 | 0.00 | 0.20 | 0.20 | 95 | 1009.3 |
| 20260509181800 | 56 | 144 | 0.0 | 1.7 | 0.00 | 0.20 | 0.20 | 95 | 1009.2 |
| 20260509181701 | 56 | 144 | 0.9 | 1.7 | 0.00 | 0.20 | 0.20 | 95 | 1009.2 |
| 20260509181601 | 56 | 144 | 0.0 | 1.7 | 0.00 | 0.20 | 0.20 | 95 | 1009.2 |
| 20260509181505 | 56 | 144 | 0.0 | 1.7 | 0.00 | 0.20 | 0.20 | 95 | 1009.2 |
| 20260509181400 | 56 | 144 | 0.0 | 1.7 | 0.00 | 0.20 | 0.20 | 95 | 1009.2 |
| 20260509181259 | 56 | 144 | 0.9 | 1.7 | 0.00 | 0.20 | 0.20 | 95 | 1009.2 |
| 20260509181159 | 56 | 144 | 1.7 | 1.7 | 0.00 | 0.20 | 0.20 | 95 | 1009.2 |
| 20260509181101 | 56 | 144 | 0.9 | 1.7 | 0.00 | 0.20 | 0.20 | 95 | 1009.2 |
| 20260509181004 | 56 | 144 | 0.0 | 1.7 | 0.00 | 0.20 | 0.20 | 95 | 1009.2 |
| 20260509180901 | 56 | 144 | 0.0 | 1.7 | 0.00 | 0.20 | 0.20 | 95 | 1009.1 |
| 20260509180700 | 56 | 144 | 0.0 | 1.7 | 0.00 | 0.20 | 0.20 | 95 | 1009.2 |
| 20260509180504 | 56 | 144 | 0.0 | 0.9 | 0.01 | 0.20 | 0.20 | 95 | 1009.3 |
| 20260509180400 | 56 | 144 | 0.0 | 0.9 | 0.01 | 0.20 | 0.20 | 95 | 1009.3 |
| 20260509180300 | 56 | 144 | 0.0 | 1.7 | 0.01 | 0.20 | 0.20 | 95 | 1009.3 |
| 20260509180100 | 56 | 144 | 0.0 | 1.7 | 0.01 | 0.20 | 0.20 | 95 | 1009.4 |
| 20260509175902 | 56 | 144 | 0.0 | 1.7 | 0.01 | 0.20 | 0.20 | 95 | 1009.5 |
| 20260509175800 | 55 | 144 | 0.0 | 1.7 | 0.01 | 0.20 | 0.20 | 95 | 1009.5 |
| 20260509175702 | 55 | 144 | 0.0 | 1.7 | 0.01 | 0.20 | 0.20 | 95 | 1009.5 |
| 20260509175601 | 55 | 144 | 0.0 | 1.7 | 0.01 | 0.20 | 0.20 | 95 | 1009.5 |
| 20260509175507 | 55 | 144 | 0.0 | 1.7 | 0.01 | 0.20 | 0.20 | 95 | 1009.5 |
| 20260509175403 | 55 | 144 | 0.0 | 2.6 | 0.01 | 0.20 | 0.20 | 95 | 1009.6 |
| 20260509175201 | 55 | 144 | 0.0 | 2.6 | 0.01 | 0.20 | 0.20 | 95 | 1009.6 |
| 20260509175101 | 55 | 144 | 0.0 | 2.6 | 0.01 | 0.20 | 0.20 | 95 | 1009.6 |
| 20260509174902 | 55 | 144 | 0.9 | 2.6 | 0.01 | 0.20 | 0.20 | 95 | 1009.7 |
| 20260509174801 | 55 | 144 | 0.0 | 2.6 | 0.01 | 0.20 | 0.20 | 95 | 1009.7 |
| 20260509174601 | 55 | 144 | 0.9 | 2.6 | 0.01 | 0.20 | 0.20 | 95 | 1009.7 |
| 20260509174506 | 55 | 144 | 1.7 | 2.6 | 0.01 | 0.20 | 0.20 | 95 | 1009.7 |
| 20260509174401 | 55 | 144 | 1.7 | 2.6 | 0.01 | 0.20 | 0.20 | 95 | 1009.7 |
| 20260509174201 | 55 | 145 | 0.0 | 0.0 | 0.01 | 0.20 | 0.20 | 95 | 1009.7 |
| 20260509174101 | 55 | 145 | 0.0 | 0.0 | 0.01 | 0.20 | 0.20 | 95 | 1009.8 |
| 20260509173900 | 55 | 145 | 0.0 | 0.0 | 0.01 | 0.20 | 0.20 | 94 | 1009.8 |
| 20260509173801 | 55 | 145 | 0.0 | 0.0 | 0.01 | 0.20 | 0.20 | 94 | 1009.8 |
| 20260509173700 | 55 | 145 | 0.0 | 0.0 | 0.01 | 0.20 | 0.20 | 94 | 1009.8 |
| 20260509173505 | 55 | 145 | 0.0 | 0.9 | 0.01 | 0.20 | 0.20 | 94 | 1009.9 |
| 20260509173401 | 55 | 145 | 0.0 | 0.9 | 0.01 | 0.20 | 0.20 | 94 | 1009.9 |
| 20260509173301 | 55 | 145 | 0.0 | 0.9 | 0.01 | 0.20 | 0.20 | 94 | 1009.9 |
| 20260509173201 | 55 | 145 | 0.0 | 0.9 | 0.01 | 0.20 | 0.20 | 94 | 1009.9 |
| 20260509173102 | 55 | 145 | 0.0 | 0.9 | 0.01 | 0.20 | 0.20 | 94 | 1010.0 |
| 20260509173004 | 55 | 145 | 0.0 | 1.7 | 0.01 | 0.20 | 0.20 | 94 | 1009.9 |
| 20260509172801 | 55 | 145 | 0.0 | 1.7 | 0.02 | 0.20 | 0.20 | 94 | 1009.9 |
| 20260509172701 | 55 | 145 | 0.0 | 1.7 | 0.02 | 0.20 | 0.20 | 94 | 1010.0 |
| 20260509172601 | 55 | 145 | 0.0 | 1.7 | 0.02 | 0.20 | 0.20 | 94 | 1010.0 |
| 20260509172505 | 55 | 145 | 0.0 | 1.7 | 0.02 | 0.20 | 0.20 | 94 | 1010.0 |
| 20260509172201 | 55 | 145 | 0.0 | 2.6 | 0.02 | 0.20 | 0.20 | 94 | 1010.1 |
| 20260509172006 | 55 | 145 | 0.9 | 2.6 | 0.02 | 0.20 | 0.20 | 94 | 1010.1 |
| 20260509171903 | 55 | 145 | 0.0 | 2.6 | 0.02 | 0.20 | 0.20 | 94 | 1010.1 |
| 20260509171803 | 55 | 145 | 0.0 | 2.6 | 0.02 | 0.20 | 0.20 | 94 | 1010.1 |
| 20260509171701 | 54 | 145 | 0.0 | 2.6 | 0.02 | 0.20 | 0.20 | 94 | 1010.2 |
| 20260509171559 | 54 | 145 | 0.0 | 2.6 | 0.02 | 0.20 | 0.20 | 94 | 1010.1 |
| 20260509171506 | 54 | 145 | 0.0 | 2.6 | 0.02 | 0.20 | 0.20 | 94 | 1010.1 |
| 20260509171401 | 54 | 145 | 0.0 | 2.6 | 0.02 | 0.20 | 0.20 | 94 | 1010.2 |
| 20260509171302 | 54 | 145 | 1.7 | 1.7 | 0.02 | 0.20 | 0.20 | 94 | 1010.2 |
| 20260509171200 | 54 | 145 | 0.0 | 1.7 | 0.03 | 0.20 | 0.20 | 94 | 1010.1 |
| 20260509171100 | 54 | 145 | 0.0 | 1.7 | 0.03 | 0.20 | 0.20 | 94 | 1010.1 |
| 20260509170900 | 54 | 145 | 0.0 | 1.7 | 0.03 | 0.20 | 0.20 | 94 | 1010.2 |
| 20260509170801 | 54 | 145 | 0.0 | 1.7 | 0.03 | 0.20 | 0.20 | 94 | 1010.1 |
| 20260509170701 | 54 | 145 | 0.0 | 1.7 | 0.03 | 0.20 | 0.20 | 94 | 1010.2 |
| 20260509170601 | 54 | 145 | 1.7 | 1.7 | 0.02 | 0.19 | 0.19 | 94 | 1010.3 |
| 20260509170402 | 54 | 145 | 0.0 | 2.6 | 0.02 | 0.19 | 0.19 | 94 | 1010.3 |
| 20260509170300 | 54 | 145 | 0.0 | 2.6 | 0.03 | 0.19 | 0.19 | 94 | 1010.2 |
| 20260509170201 | 54 | 145 | 0.9 | 2.6 | 0.03 | 0.19 | 0.19 | 94 | 1010.1 |
| 20260509170005 | 54 | 145 | 0.0 | 2.6 | 0.03 | 0.19 | 0.19 | 94 | 1010.2 |
| 20260509165901 | 54 | 145 | 0.0 | 2.6 | 0.03 | 0.19 | 0.19 | 94 | 1010.2 |
| 20260509165800 | 54 | 145 | 0.0 | 2.6 | 0.03 | 0.19 | 0.19 | 94 | 1010.1 |
| 20260509165700 | 54 | 145 | 0.0 | 2.6 | 0.03 | 0.19 | 0.19 | 94 | 1010.1 |
| 20260509165600 | 54 | 145 | 0.0 | 2.6 | 0.03 | 0.19 | 0.19 | 94 | 1010.1 |
| 20260509165505 | 54 | 145 | 0.9 | 2.6 | 0.03 | 0.19 | 0.19 | 94 | 1010.0 |
| 20260509165359 | 54 | 145 | 0.9 | 2.6 | 0.03 | 0.19 | 0.19 | 94 | 1010.0 |
| 20260509165300 | 54 | 145 | 0.9 | 1.7 | 0.04 | 0.19 | 0.19 | 94 | 1010.0 |
| 20260509165201 | 54 | 145 | 0.0 | 1.7 | 0.04 | 0.19 | 0.19 | 94 | 1010.0 |
| 20260509165059 | 54 | 145 | 0.0 | 1.7 | 0.04 | 0.19 | 0.19 | 93 | 1010.0 |
| 20260509165005 | 54 | 145 | 1.7 | 1.7 | 0.04 | 0.19 | 0.19 | 93 | 1010.1 |
| 20260509164859 | 54 | 145 | 0.9 | 1.7 | 0.04 | 0.19 | 0.19 | 93 | 1010.1 |
| 20260509164800 | 54 | 145 | 0.0 | 1.7 | 0.04 | 0.19 | 0.19 | 94 | 1010.1 |
| 20260509164701 | 54 | 145 | 0.0 | 1.7 | 0.05 | 0.19 | 0.19 | 94 | 1010.0 |
| 20260509164600 | 54 | 145 | 0.0 | 2.6 | 0.05 | 0.19 | 0.19 | 94 | 1010.0 |
| 20260509164505 | 54 | 145 | 1.7 | 2.6 | 0.05 | 0.19 | 0.19 | 94 | 1010.0 |
| 20260509164359 | 54 | 145 | 0.0 | 2.6 | 0.05 | 0.19 | 0.19 | 94 | 1009.9 |
| 20260509164259 | 54 | 145 | 0.9 | 2.6 | 0.05 | 0.19 | 0.19 | 94 | 1009.9 |
| 20260509164200 | 54 | 145 | 0.0 | 2.6 | 0.05 | 0.19 | 0.19 | 94 | 1009.9 |
| 20260509164100 | 54 | 145 | 0.9 | 2.6 | 0.06 | 0.19 | 0.19 | 94 | 1009.8 |
| 20260509164005 | 54 | 145 | 0.9 | 2.6 | 0.06 | 0.19 | 0.19 | 94 | 1009.8 |
| 20260509163900 | 54 | 145 | 0.0 | 2.6 | 0.07 | 0.19 | 0.19 | 94 | 1009.8 |
| 20260509163658 | 54 | 145 | 0.9 | 2.6 | 0.07 | 0.19 | 0.19 | 94 | 1009.7 |
| 20260509163601 | 53 | 145 | 0.9 | 2.6 | 0.07 | 0.19 | 0.19 | 94 | 1009.7 |
| 20260509163505 | 53 | 145 | 0.9 | 2.6 | 0.07 | 0.19 | 0.19 | 94 | 1009.6 |
| 20260509163401 | 53 | 145 | 1.7 | 2.6 | 0.08 | 0.19 | 0.19 | 94 | 1009.6 |
| 20260509163300 | 53 | 145 | 0.0 | 2.6 | 0.08 | 0.19 | 0.19 | 94 | 1009.6 |
| 20260509163159 | 53 | 145 | 0.9 | 2.6 | 0.09 | 0.19 | 0.19 | 94 | 1009.6 |
| 20260509163100 | 53 | 145 | 0.9 | 2.6 | 0.09 | 0.19 | 0.19 | 94 | 1009.6 |
| 20260509163004 | 53 | 145 | 1.7 | 2.6 | 0.09 | 0.19 | 0.19 | 94 | 1009.5 |
| 20260509162859 | 53 | 145 | 1.7 | 2.6 | 0.08 | 0.18 | 0.18 | 94 | 1009.4 |
| 20260509162700 | 53 | 145 | 0.0 | 2.6 | 0.09 | 0.18 | 0.18 | 94 | 1009.3 |
| 20260509162601 | 53 | 145 | 0.9 | 2.6 | 0.09 | 0.18 | 0.18 | 94 | 1009.3 |
| 20260509162504 | 53 | 145 | 1.7 | 2.6 | 0.10 | 0.18 | 0.18 | 94 | 1009.3 |
| 20260509162301 | 53 | 146 | 0.9 | 2.6 | 0.11 | 0.18 | 0.18 | 94 | 1009.3 |
| 20260509162200 | 53 | 146 | 0.9 | 3.5 | 0.11 | 0.18 | 0.18 | 95 | 1009.4 |
| 20260509162101 | 53 | 146 | 0.0 | 4.3 | 0.12 | 0.18 | 0.18 | 95 | 1009.4 |
| 20260509162004 | 53 | 146 | 1.7 | 4.3 | 0.12 | 0.18 | 0.18 | 95 | 1009.4 |
| 20260509161900 | 53 | 146 | 0.9 | 4.3 | 0.12 | 0.18 | 0.18 | 95 | 1009.4 |
| 20260509161801 | 53 | 146 | 1.7 | 4.3 | 0.12 | 0.18 | 0.18 | 95 | 1009.4 |
| 20260509161700 | 53 | 146 | 0.9 | 4.3 | 0.13 | 0.18 | 0.18 | 95 | 1009.3 |
| 20260509161505 | 53 | 65 | 0.9 | 4.3 | 0.14 | 0.18 | 0.18 | 95 | 1009.2 |
| 20260509161400 | 53 | 65 | 0.9 | 4.3 | 0.14 | 0.18 | 0.18 | 95 | 1009.2 |
| 20260509161200 | 53 | 59 | 3.5 | 4.3 | 0.13 | 0.17 | 0.17 | 95 | 1009.4 |
| 20260509161100 | 53 | 142 | 0.9 | 4.3 | 0.13 | 0.17 | 0.17 | 94 | 1009.4 |
| 20260509161002 | 53 | 103 | 0.9 | 4.3 | 0.13 | 0.17 | 0.17 | 94 | 1009.4 |
| 20260509160859 | 53 | 70 | 3.5 | 4.3 | 0.13 | 0.17 | 0.17 | 94 | 1009.5 |
| 20260509160759 | 53 | 83 | 1.7 | 4.3 | 0.14 | 0.17 | 0.17 | 94 | 1009.5 |
| 20260509160659 | 53 | 97 | 1.7 | 4.3 | 0.14 | 0.17 | 0.17 | 94 | 1009.5 |
| 20260509160600 | 53 | 100 | 1.7 | 4.3 | 0.14 | 0.17 | 0.17 | 95 | 1009.5 |
| 20260509160503 | 53 | 58 | 3.5 | 4.3 | 0.14 | 0.17 | 0.17 | 95 | 1009.6 |
| 20260509160401 | 53 | 71 | 2.6 | 4.3 | 0.13 | 0.16 | 0.16 | 95 | 1009.7 |
| 20260509160201 | 53 | 93 | 0.9 | 3.5 | 0.13 | 0.16 | 0.16 | 95 | 1009.7 |
| 20260509160007 | 53 | 93 | 0.9 | 3.5 | 0.14 | 0.16 | 0.16 | 95 | 1009.7 |
| 20260509155859 | 53 | 94 | 3.5 | 3.5 | 0.14 | 0.16 | 0.16 | 95 | 1009.7 |
| 20260509155759 | 53 | 94 | 0.9 | 3.5 | 0.14 | 0.16 | 0.16 | 95 | 1009.9 |
| 20260509155601 | 53 | 94 | 1.7 | 3.5 | 0.14 | 0.16 | 0.16 | 95 | 1009.9 |
| 20260509155501 | 53 | 94 | 0.9 | 3.5 | 0.14 | 0.16 | 0.16 | 95 | 1010.0 |
| 20260509155400 | 53 | 94 | 2.6 | 3.5 | 0.14 | 0.16 | 0.16 | 95 | 1010.1 |
| 20260509155300 | 53 | 94 | 0.9 | 3.5 | 0.13 | 0.15 | 0.15 | 95 | 1010.0 |
| 20260509155159 | 53 | 94 | 2.6 | 3.5 | 0.13 | 0.15 | 0.15 | 95 | 1010.1 |
| 20260509155100 | 53 | 95 | 0.0 | 1.7 | 0.13 | 0.15 | 0.15 | 95 | 1010.2 |
| 20260509155004 | 53 | 95 | 0.0 | 1.7 | 0.13 | 0.15 | 0.15 | 95 | 1010.2 |
| 20260509154901 | 53 | 94 | 0.0 | 1.7 | 0.13 | 0.15 | 0.15 | 95 | 1010.3 |
| 20260509154506 | 53 | 95 | 0.0 | 0.0 | 0.12 | 0.14 | 0.14 | 95 | 1010.3 |
| 20260509154259 | 53 | 95 | 0.0 | 0.0 | 0.12 | 0.14 | 0.14 | 95 | 1010.5 |
| 20260509154100 | 53 | 95 | 0.0 | 0.0 | 0.11 | 0.13 | 0.13 | 95 | 1010.6 |
| 20260509154005 | 53 | 95 | 0.0 | 0.0 | 0.11 | 0.13 | 0.13 | 95 | 1010.6 |
| 20260509153901 | 53 | 95 | 0.0 | 0.0 | 0.11 | 0.12 | 0.12 | 95 | 1010.7 |
| 20260509153801 | 53 | 95 | 0.0 | 0.9 | 0.11 | 0.12 | 0.12 | 95 | 1010.7 |
| 20260509153700 | 53 | 95 | 0.0 | 0.9 | 0.11 | 0.12 | 0.12 | 95 | 1010.7 |
| 20260509153559 | 53 | 95 | 0.0 | 0.9 | 0.11 | 0.12 | 0.12 | 95 | 1010.7 |
| 20260509153505 | 53 | 95 | 0.0 | 1.7 | 0.11 | 0.12 | 0.12 | 95 | 1010.6 |
| 20260509153359 | 53 | 95 | 0.0 | 1.7 | 0.10 | 0.11 | 0.11 | 95 | 1010.7 |
| 20260509153300 | 53 | 95 | 0.0 | 1.7 | 0.10 | 0.11 | 0.11 | 95 | 1010.8 |
| 20260509153200 | 53 | 95 | 0.0 | 2.6 | 0.09 | 0.10 | 0.10 | 95 | 1010.7 |
| 20260509153101 | 53 | 94 | 0.0 | 2.6 | 0.09 | 0.10 | 0.10 | 95 | 1010.9 |
| 20260509152900 | 53 | 95 | 0.0 | 2.6 | 0.10 | 0.10 | 0.10 | 95 | 1010.9 |
| 20260509152801 | 53 | 95 | 0.0 | 2.6 | 0.09 | 0.09 | 0.09 | 95 | 1010.9 |
| 20260509152701 | 53 | 95 | 0.9 | 2.6 | 0.09 | 0.09 | 0.09 | 94 | 1010.9 |
| 20260509152600 | 53 | 95 | 0.0 | 2.6 | 0.09 | 0.09 | 0.09 | 94 | 1010.9 |
| 20260509152505 | 53 | 95 | 0.0 | 2.6 | 0.08 | 0.08 | 0.08 | 94 | 1011.0 |
| 20260509152401 | 53 | 95 | 0.0 | 2.6 | 0.08 | 0.08 | 0.08 | 95 | 1011.0 |
| 20260509152305 | 53 | 95 | 0.0 | 2.6 | 0.07 | 0.07 | 0.07 | 95 | 1011.0 |
| 20260509152100 | 53 | 95 | 0.0 | 0.0 | 0.06 | 0.06 | 0.06 | 94 | 1011.0 |
| 20260509152005 | 53 | 95 | 0.0 | 0.0 | 0.06 | 0.06 | 0.06 | 94 | 1011.0 |
| 20260509151859 | 54 | 95 | 0.0 | 0.0 | 0.06 | 0.06 | 0.06 | 94 | 1011.0 |
| 20260509151802 | 54 | 95 | 0.0 | 0.0 | 0.06 | 0.06 | 0.06 | 94 | 1011.0 |
| 20260509151701 | 54 | 95 | 0.0 | 1.7 | 0.05 | 0.05 | 0.05 | 94 | 1011.0 |
| 20260509151601 | 54 | 95 | 0.0 | 1.7 | 0.05 | 0.05 | 0.05 | 95 | 1011.0 |
| 20260509151504 | 54 | 95 | 0.0 | 1.7 | 0.04 | 0.04 | 0.04 | 95 | 1011.0 |
| 20260509151400 | 54 | 94 | 0.0 | 1.7 | 0.04 | 0.04 | 0.04 | 95 | 1011.0 |
| 20260509151200 | 54 | 94 | 0.0 | 1.7 | 0.04 | 0.04 | 0.04 | 94 | 1010.9 |
| 20260509151003 | 54 | 95 | 0.0 | 1.7 | 0.04 | 0.04 | 0.04 | 94 | 1010.8 |
| 20260509150902 | 54 | 95 | 0.0 | 1.7 | 0.04 | 0.04 | 0.04 | 94 | 1010.8 |
| 20260509150801 | 54 | 95 | 0.0 | 1.7 | 0.03 | 0.03 | 0.03 | 94 | 1010.7 |
| 20260509150700 | 54 | 95 | 0.9 | 0.9 | 0.03 | 0.03 | 0.03 | 94 | 1010.8 |
| 20260509150359 | 54 | 95 | 0.0 | 0.0 | 0.03 | 0.03 | 0.03 | 94 | 1010.6 |
| 20260509150300 | 54 | 95 | 0.0 | 0.0 | 0.03 | 0.03 | 0.03 | 94 | 1010.6 |
| 20260509150100 | 54 | 95 | 0.0 | 0.0 | 0.03 | 0.03 | 0.03 | 94 | 1010.5 |
| 20260509150006 | 54 | 94 | 0.0 | 0.0 | 0.02 | 0.02 | 0.02 | 93 | 1010.5 |
| 20260509145900 | 54 | 94 | 0.0 | 0.0 | 0.02 | 0.02 | 0.02 | 93 | 1010.5 |
| 20260509145800 | 54 | 95 | 0.0 | 0.0 | 0.02 | 0.02 | 0.02 | 93 | 1010.5 |
| 20260509145700 | 54 | 95 | 0.0 | 0.0 | 0.02 | 0.02 | 0.02 | 93 | 1010.5 |
| 20260509145600 | 54 | 94 | 0.0 | 0.9 | 0.02 | 0.02 | 0.02 | 93 | 1010.5 |
| 20260509145505 | 54 | 95 | 0.0 | 0.9 | 0.02 | 0.02 | 0.02 | 93 | 1010.5 |
| 20260509145400 | 54 | 95 | 0.0 | 0.9 | 0.02 | 0.02 | 0.02 | 93 | 1010.5 |
| 20260509145300 | 54 | 95 | 0.0 | 0.9 | 0.02 | 0.02 | 0.02 | 93 | 1010.5 |
| 20260509145159 | 54 | 94 | 0.0 | 0.9 | 0.02 | 0.02 | 0.02 | 93 | 1010.6 |
| 20260509145100 | 54 | 95 | 0.0 | 0.9 | 0.02 | 0.02 | 0.02 | 93 | 1010.5 |
| 20260509145006 | 54 | 95 | 0.0 | 0.9 | 0.02 | 0.02 | 0.02 | 93 | 1010.5 |
| 20260509144800 | 54 | 95 | 0.0 | 1.7 | 0.02 | 0.02 | 0.02 | 92 | 1010.5 |
| 20260509144659 | 54 | 95 | 0.0 | 1.7 | 0.02 | 0.02 | 0.02 | 92 | 1010.4 |
| 20260509144559 | 54 | 94 | 0.0 | 1.7 | 0.02 | 0.02 | 0.02 | 92 | 1010.4 |
| 20260509144505 | 54 | 95 | 0.0 | 1.7 | 0.02 | 0.02 | 0.02 | 92 | 1010.4 |
| 20260509144400 | 54 | 94 | 0.0 | 1.7 | 0.02 | 0.02 | 0.02 | 92 | 1010.4 |
| 20260509144300 | 54 | 94 | 0.0 | 1.7 | 0.02 | 0.02 | 0.02 | 92 | 1010.4 |
| 20260509144200 | 54 | 95 | 0.0 | 1.7 | 0.02 | 0.02 | 0.02 | 92 | 1010.4 |
| 20260509144100 | 54 | 95 | 0.0 | 1.7 | 0.02 | 0.02 | 0.02 | 91 | 1010.4 |
| 20260509143859 | 54 | 95 | 1.7 | 1.7 | 0.01 | 0.01 | 0.01 | 91 | 1010.4 |
| 20260509143800 | 54 | 94 | 0.0 | 1.7 | 0.01 | 0.01 | 0.01 | 91 | 1010.4 |
| 20260509143700 | 54 | 95 | 0.0 | 1.7 | 0.01 | 0.01 | 0.01 | 91 | 1010.5 |
| 20260509143600 | 54 | 95 | 0.0 | 1.7 | 0.01 | 0.01 | 0.01 | 91 | 1010.4 |
| 20260509143401 | 54 | 95 | 0.0 | 1.7 | 0.01 | 0.01 | 0.01 | 90 | 1010.4 |
| 20260509143300 | 54 | 95 | 0.0 | 1.7 | 0.01 | 0.01 | 0.01 | 90 | 1010.4 |
| 20260509143201 | 54 | 95 | 0.0 | 1.7 | 0.01 | 0.01 | 0.01 | 90 | 1010.4 |
| 20260509143100 | 54 | 95 | 0.0 | 1.7 | 0.01 | 0.01 | 0.01 | 90 | 1010.4 |
| 20260509143006 | 54 | 95 | 0.0 | 1.7 | 0.01 | 0.01 | 0.01 | 90 | 1010.4 |
| 20260509142900 | 54 | 95 | 0.0 | 1.7 | 0.00 | 0.00 | 0.00 | 90 | 1010.4 |
| 20260509142759 | 54 | 95 | 0.0 | 1.7 | 0.00 | 0.00 | 0.00 | 90 | 1010.3 |
| 20260509142701 | 54 | 95 | 0.0 | 1.7 | 0.00 | 0.00 | 0.00 | 90 | 1010.3 |
| 20260509142559 | 54 | 95 | 0.0 | 1.7 | 0.00 | 0.00 | 0.00 | 89 | 1010.3 |
| 20260509142500 | 54 | 95 | 0.0 | 1.7 | 0.00 | 0.00 | 0.00 | 89 | 1010.3 |
| 20260509142402 | 54 | 95 | 0.0 | 1.7 | 0.00 | 0.00 | 0.00 | 89 | 1010.3 |
| 20260509142300 | 54 | 94 | 0.0 | 1.7 | 0.00 | 0.00 | 0.00 | 89 | 1010.3 |
| 20260509142200 | 54 | 95 | 0.0 | 1.7 | 0.00 | 0.00 | 0.00 | 89 | 1010.4 |
| 20260509142100 | 54 | 95 | 0.0 | 1.7 | 0.00 | 0.00 | 0.00 | 89 | 1010.4 |
| 20260509141901 | 54 | 95 | 0.0 | 1.7 | 0.00 | 0.00 | 0.00 | 89 | 1010.3 |
| 20260509141759 | 54 | 95 | 0.0 | 1.7 | 0.00 | 0.00 | 0.00 | 89 | 1010.3 |
| 20260509141700 | 54 | 95 | 0.0 | 1.7 | 0.00 | 0.00 | 0.00 | 89 | 1010.3 |
| 20260509141600 | 54 | 95 | 0.9 | 1.7 | 0.00 | 0.00 | 0.00 | 89 | 1010.3 |
| 20260509141505 | 54 | 95 | 0.9 | 1.7 | 0.00 | 0.00 | 0.00 | 89 | 1010.3 |
| 20260509141359 | 54 | 95 | 0.0 | 1.7 | 0.00 | 0.00 | 0.00 | 88 | 1010.2 |
| 20260509141300 | 54 | 95 | 0.0 | 1.7 | 0.00 | 0.00 | 0.00 | 88 | 1010.1 |
| 20260509141201 | 54 | 95 | 0.0 | 1.7 | 0.00 | 0.00 | 0.00 | 89 | 1010.1 |
| 20260509141100 | 54 | 94 | 0.0 | 1.7 | 0.00 | 0.00 | 0.00 | 89 | 1010.1 |
| 20260509140801 | 54 | 95 | 0.9 | 2.6 | 0.00 | 0.00 | 0.00 | 89 | 1010.2 |
| 20260509140700 | 54 | 94 | 0.0 | 2.6 | 0.00 | 0.00 | 0.00 | 89 | 1010.1 |
| 20260509140600 | 54 | 95 | 0.0 | 2.6 | 0.00 | 0.00 | 0.00 | 89 | 1010.1 |
| 20260509140501 | 54 | 94 | 0.0 | 2.6 | 0.00 | 0.00 | 0.00 | 89 | 1010.2 |
| 20260509140400 | 54 | 94 | 0.0 | 2.6 | 0.00 | 0.00 | 0.00 | 89 | 1010.1 |
| 20260509140259 | 54 | 95 | 0.0 | 2.6 | 0.00 | 0.00 | 0.00 | 89 | 1010.1 |
| 20260509140159 | 54 | 94 | 0.0 | 2.6 | 0.00 | 0.00 | 0.00 | 89 | 1010.2 |
| 20260509140059 | 54 | 94 | 2.6 | 2.6 | 0.00 | 0.00 | 0.00 | 89 | 1010.1 |
| 20260509140001 | 54 | 95 | 0.9 | 2.6 | 0.00 | 0.00 | 0.00 | 89 | 1010.2 |
| 20260509135859 | 54 | 95 | 0.0 | 2.6 | 0.00 | 0.00 | 0.00 | 89 | 1010.2 |
| 20260509135800 | 54 | 95 | 0.0 | 2.6 | 0.00 | 0.00 | 0.00 | 89 | 1010.1 |
| 20260509135700 | 54 | 95 | 0.0 | 2.6 | 0.00 | 0.00 | 0.00 | 89 | 1010.1 |
| 20260509135600 | 54 | 95 | 1.7 | 1.7 | 0.00 | 0.00 | 0.00 | 89 | 1010.1 |
| 20260509135401 | 54 | 95 | 0.9 | 1.7 | 0.00 | 0.00 | 0.00 | 89 | 1010.1 |
| 20260509135259 | 54 | 94 | 0.0 | 1.7 | 0.00 | 0.00 | 0.00 | 89 | 1010.1 |
| 20260509135201 | 54 | 95 | 0.0 | 2.6 | 0.00 | 0.00 | 0.00 | 89 | 1010.1 |
| 20260509135059 | 54 | 94 | 0.0 | 2.6 | 0.00 | 0.00 | 0.00 | 89 | 1010.1 |
| 20260509135005 | 54 | 94 | 0.0 | 2.6 | 0.00 | 0.00 | 0.00 | 90 | 1010.0 |
| 20260509134801 | 54 | 94 | 0.0 | 3.5 | 0.00 | 0.00 | 0.00 | 90 | 1010.0 |
| 20260509134659 | 54 | 94 | 0.0 | 3.5 | 0.00 | 0.00 | 0.00 | 90 | 1010.1 |
| 20260509134559 | 54 | 94 | 0.0 | 3.5 | 0.00 | 0.00 | 0.00 | 90 | 1010.1 |
| 20260509134505 | 54 | 94 | 0.0 | 3.5 | 0.00 | 0.00 | 0.00 | 90 | 1010.1 |
| 20260509134400 | 54 | 94 | 0.9 | 3.5 | 0.00 | 0.00 | 0.00 | 90 | 1010.1 |
| 20260509134300 | 54 | 94 | 0.9 | 3.5 | 0.00 | 0.00 | 0.00 | 91 | 1010.2 |
| 20260509134159 | 54 | 173 | 0.9 | 3.5 | 0.00 | 0.00 | 0.00 | 91 | 1010.1 |
| 20260509134100 | 54 | 186 | 1.7 | 3.5 | 0.00 | 0.00 | 0.00 | 91 | 1010.1 |
| 20260509134004 | 54 | 187 | 0.9 | 3.5 | 0.00 | 0.00 | 0.00 | 91 | 1010.1 |
| 20260509133901 | 54 | 187 | 1.7 | 1.7 | 0.00 | 0.00 | 0.00 | 91 | 1010.1 |
| 20260509133801 | 54 | 187 | 0.0 | 1.7 | 0.00 | 0.00 | 0.00 | 91 | 1010.0 |
| 20260509133601 | 53 | 187 | 0.0 | 1.7 | 0.00 | 0.00 | 0.00 | 92 | 1010.0 |
| 20260509133505 | 53 | 187 | 0.0 | 1.7 | 0.00 | 0.00 | 0.00 | 92 | 1010.1 |
| 20260509133259 | 53 | 187 | 0.0 | 1.7 | 0.00 | 0.00 | 0.00 | 92 | 1010.0 |
| 20260509133200 | 53 | 187 | 0.0 | 1.7 | 0.00 | 0.00 | 0.00 | 92 | 1010.1 |
| 20260509133100 | 53 | 187 | 0.9 | 1.7 | 0.00 | 0.00 | 0.00 | 93 | 1010.0 |
| 20260509133002 | 53 | 187 | 0.9 | 3.5 | 0.00 | 0.00 | 0.00 | 93 | 1010.0 |
| 20260509132859 | 53 | 187 | 0.9 | 3.5 | 0.00 | 0.00 | 0.00 | 93 | 1010.0 |
| 20260509132801 | 53 | 187 | 0.9 | 3.5 | 0.00 | 0.00 | 0.00 | 93 | 1010.0 |
| 20260509132559 | 53 | 187 | 0.9 | 3.5 | 0.00 | 0.00 | 0.00 | 93 | 1010.0 |
| 20260509132505 | 53 | 187 | 0.0 | 3.5 | 0.00 | 0.00 | 0.00 | 93 | 1009.9 |
| 20260509132400 | 52 | 187 | 0.0 | 3.5 | 0.00 | 0.00 | 0.00 | 93 | 1009.9 |
| 20260509132300 | 52 | 203 | 1.7 | 3.5 | 0.00 | 0.00 | 0.00 | 94 | 1009.9 |
| 20260509132200 | 52 | 217 | 0.9 | 3.5 | 0.00 | 0.00 | 0.00 | 94 | 1009.9 |
| 20260509132059 | 52 | 220 | 0.9 | 3.5 | 0.00 | 0.00 | 0.00 | 94 | 1009.9 |
| 20260509132004 | 52 | 103 | 0.0 | 1.7 | 0.00 | 0.00 | 0.00 | 94 | 1010.0 |
| 20260509131859 | 52 | 103 | 0.0 | 1.7 | 0.00 | 0.00 | 0.00 | 94 | 1010.0 |
| 20260509131701 | 52 | 103 | 0.0 | 1.7 | 0.00 | 0.00 | 0.00 | 94 | 1009.9 |
| 20260509131559 | 52 | 103 | 0.0 | 1.7 | 0.00 | 0.00 | 0.00 | 94 | 1009.9 |
| 20260509131505 | 52 | 103 | 0.0 | 1.7 | 0.00 | 0.00 | 0.00 | 94 | 1009.9 |
| 20260509131400 | 52 | 103 | 0.0 | 1.7 | 0.00 | 0.00 | 0.00 | 94 | 1009.8 |
| 20260509131300 | 52 | 103 | 0.0 | 1.7 | 0.00 | 0.00 | 0.00 | 94 | 1009.8 |
| 20260509131159 | 52 | 103 | 0.9 | 1.7 | 0.00 | 0.00 | 0.00 | 94 | 1009.7 |
| 20260509131059 | 52 | 103 | 0.9 | 1.7 | 0.00 | 0.00 | 0.00 | 93 | 1009.6 |
| 20260509130900 | 52 | 103 | 1.7 | 1.7 | 0.00 | 0.00 | 0.00 | 94 | 1009.6 |
| 20260509130759 | 52 | 103 | 0.9 | 1.7 | 0.00 | 0.00 | 0.00 | 94 | 1009.6 |
| 20260509130659 | 52 | 103 | 0.9 | 1.7 | 0.00 | 0.00 | 0.00 | 93 | 1009.5 |
| 20260509130504 | 52 | 103 | 0.9 | 1.7 | 0.00 | 0.00 | 0.00 | 93 | 1009.3 |
| 20260509130359 | 53 | 103 | 0.0 | 1.7 | 0.00 | 0.00 | 0.00 | 93 | 1009.3 |
| 20260509130301 | 53 | 103 | 0.0 | 1.7 | 0.00 | 0.00 | 0.00 | 93 | 1009.2 |
| 20260509130159 | 53 | 103 | 0.0 | 1.7 | 0.00 | 0.00 | 0.00 | 93 | 1009.2 |
| 20260509130100 | 53 | 103 | 0.0 | 1.7 | 0.00 | 0.00 | 0.00 | 93 | 1009.3 |
| 20260509130000 | 53 | 103 | 0.0 | 1.7 | 0.00 | 0.00 | 0.00 | 93 | 1009.3 |
| 20260509125901 | 53 | 103 | 0.0 | 1.7 | 0.00 | 0.00 | 0.00 | 93 | 1009.2 |
| 20260509125759 | 53 | 103 | 0.9 | 1.7 | 0.00 | 0.00 | 0.00 | 93 | 1009.2 |
| 20260509125701 | 53 | 103 | 0.9 | 1.7 | 0.00 | 0.00 | 0.00 | 93 | 1009.3 |
| 20260509125600 | 53 | 103 | 0.0 | 1.7 | 0.00 | 0.00 | 0.00 | 93 | 1009.2 |
| 20260509125506 | 53 | 103 | 0.0 | 2.6 | 0.00 | 0.00 | 0.00 | 93 | 1009.3 |
| 20260509125259 | 53 | 103 | 0.9 | 3.5 | 0.00 | 0.00 | 0.00 | 92 | 1009.3 |
| 20260509125100 | 53 | 103 | 0.0 | 3.5 | 0.00 | 0.00 | 0.00 | 92 | 1009.3 |
| 20260509125000 | 53 | 103 | 0.0 | 3.5 | 0.00 | 0.00 | 0.00 | 92 | 1009.3 |
| 20260509124901 | 53 | 103 | 0.9 | 3.5 | 0.00 | 0.00 | 0.00 | 92 | 1009.3 |
| 20260509124758 | 53 | 103 | 0.0 | 3.5 | 0.00 | 0.00 | 0.00 | 92 | 1009.3 |
| 20260509124505 | 53 | 101 | 0.9 | 3.5 | 0.00 | 0.00 | 0.00 | 91 | 1009.4 |
| 20260509124400 | 53 | 101 | 2.6 | 3.5 | 0.00 | 0.00 | 0.00 | 91 | 1009.5 |
| 20260509124259 | 53 | 103 | 1.7 | 2.6 | 0.00 | 0.00 | 0.00 | 91 | 1009.5 |
| 20260509124200 | 53 | 103 | 1.7 | 2.6 | 0.00 | 0.00 | 0.00 | 91 | 1009.6 |
| 20260509124100 | 53 | 103 | 0.9 | 0.9 | 0.00 | 0.00 | 0.00 | 91 | 1009.7 |
| 20260509124004 | 53 | 103 | 0.0 | 0.9 | 0.00 | 0.00 | 0.00 | 91 | 1009.7 |
| 20260509123801 | 53 | 103 | 0.0 | 0.9 | 0.00 | 0.00 | 0.00 | 90 | 1009.7 |
| 20260509123702 | 53 | 103 | 0.0 | 0.9 | 0.00 | 0.00 | 0.00 | 90 | 1009.8 |
| 20260509123600 | 53 | 103 | 0.0 | 0.0 | 0.00 | 0.00 | 0.00 | 90 | 1009.8 |
| 20260509123505 | 53 | 103 | 0.0 | 0.0 | 0.00 | 0.00 | 0.00 | 90 | 1009.9 |
| 20260509123400 | 53 | 103 | 0.0 | 0.0 | 0.00 | 0.00 | 0.00 | 90 | 1009.9 |
| 20260509123300 | 53 | 103 | 0.0 | 0.0 | 0.00 | 0.00 | 0.00 | 90 | 1010.0 |
| 20260509123200 | 53 | 103 | 0.0 | 0.0 | 0.00 | 0.00 | 0.00 | 90 | 1010.0 |
| 20260509123100 | 53 | 103 | 0.0 | 0.0 | 0.00 | 0.00 | 0.00 | 89 | 1010.0 |
| 20260509123003 | 53 | 103 | 0.0 | 0.0 | 0.00 | 0.00 | 0.00 | 89 | 1010.0 |
| 20260509122900 | 53 | 103 | 0.0 | 0.0 | 0.00 | 0.00 | 0.00 | 89 | 1010.0 |
| 20260509122759 | 53 | 103 | 0.0 | 0.0 | 0.00 | 0.00 | 0.00 | 89 | 1010.0 |
| 20260509122700 | 53 | 103 | 0.0 | 0.0 | 0.00 | 0.00 | 0.00 | 90 | 1010.0 |
| 20260509122600 | 53 | 103 | 0.0 | 0.0 | 0.00 | 0.00 | 0.00 | 90 | 1010.0 |
| 20260509122504 | 53 | 103 | 0.0 | 0.0 | 0.00 | 0.00 | 0.00 | 90 | 1010.0 |
| 20260509122401 | 53 | 103 | 0.0 | 0.0 | 0.00 | 0.00 | 0.00 | 90 | 1010.1 |
| 20260509122300 | 53 | 103 | 0.0 | 0.0 | 0.00 | 0.00 | 0.00 | 89 | 1010.1 |
| 20260509122200 | 53 | 103 | 0.0 | 0.0 | 0.00 | 0.00 | 0.00 | 89 | 1010.1 |
| 20260509122100 | 53 | 103 | 0.0 | 0.0 | 0.00 | 0.00 | 0.00 | 89 | 1010.1 |
| 20260509122005 | 53 | 103 | 0.0 | 0.0 | 0.00 | 0.00 | 0.00 | 89 | 1010.1 |
| 20260509121759 | 53 | 103 | 0.0 | 0.0 | 0.00 | 0.00 | 0.00 | 90 | 1010.1 |
| 20260509121700 | 53 | 103 | 0.0 | 0.0 | 0.00 | 0.00 | 0.00 | 90 | 1010.1 |
| 20260509121600 | 53 | 103 | 0.0 | 0.0 | 0.00 | 0.00 | 0.00 | 90 | 1010.1 |
| 20260509121504 | 53 | 103 | 0.0 | 0.0 | 0.00 | 0.00 | 0.00 | 89 | 1010.1 |
| 20260509121400 | 52 | 103 | 0.0 | 0.0 | 0.00 | 0.00 | 0.00 | 89 | 1010.1 |
| 20260509121301 | 52 | 103 | 0.0 | 0.0 | 0.00 | 0.00 | 0.00 | 89 | 1010.1 |
| 20260509121200 | 52 | 103 | 0.0 | 0.0 | 0.00 | 0.00 | 0.00 | 90 | 1010.1 |
| 20260509121101 | 52 | 103 | 0.0 | 0.9 | 0.00 | 0.00 | 0.00 | 90 | 1010.0 |
| 20260509121005 | 52 | 103 | 0.0 | 0.9 | 0.00 | 0.00 | 0.00 | 89 | 1010.0 |
| 20260509120901 | 52 | 103 | 0.0 | 0.9 | 0.00 | 0.00 | 0.00 | 89 | 1010.0 |
| 20260509120759 | 52 | 103 | 0.0 | 0.9 | 0.00 | 0.00 | 0.00 | 89 | 1009.9 |
| 20260509120700 | 52 | 103 | 0.0 | 0.9 | 0.00 | 0.00 | 0.00 | 88 | 1009.9 |
| 20260509120600 | 52 | 103 | 0.0 | 1.7 | 0.00 | 0.00 | 0.00 | 88 | 1009.9 |
| 20260509120501 | 52 | 103 | 0.0 | 2.6 | 0.00 | 0.00 | 0.00 | 88 | 1009.8 |
| 20260509120359 | 52 | 103 | 0.0 | 2.6 | 0.00 | 0.00 | 0.00 | 88 | 1009.8 |
| 20260509120259 | 52 | 103 | 0.0 | 2.6 | 0.00 | 0.00 | 0.00 | 88 | 1009.8 |
| 20260509120159 | 52 | 103 | 0.0 | 2.6 | 0.00 | 0.00 | 0.00 | 89 | 1009.8 |
| 20260509120101 | 52 | 103 | 0.0 | 2.6 | 0.00 | 0.00 | 0.00 | 89 | 1009.7 |
| 20260509115700 | 52 | 103 | 1.7 | 2.6 | 0.00 | 0.00 | 0.00 | 89 | 1009.7 |
| 20260509115504 | 52 | 103 | 0.9 | 2.6 | 0.00 | 0.00 | 0.00 | 89 | 1009.6 |
| 20260509115359 | 52 | 103 | 0.0 | 2.6 | 0.00 | 0.00 | 0.00 | 89 | 1009.6 |
| 20260509115300 | 52 | 103 | 0.0 | 2.6 | 0.00 | 0.00 | 0.00 | 89 | 1009.6 |
| 20260509115159 | 52 | 103 | 0.9 | 2.6 | 0.00 | 0.00 | 0.00 | 90 | 1009.5 |
| 20260509115101 | 52 | 103 | 0.9 | 2.6 | 0.00 | 0.00 | 0.00 | 90 | 1009.5 |
| 20260509114859 | 52 | 103 | 0.0 | 1.7 | 0.00 | 0.00 | 0.00 | 89 | 1009.6 |
| 20260509114801 | 52 | 103 | 0.0 | 1.7 | 0.00 | 0.00 | 0.00 | 89 | 1009.6 |
| 20260509114659 | 52 | 103 | 0.9 | 1.7 | 0.00 | 0.00 | 0.00 | 89 | 1009.6 |
| 20260509114559 | 52 | 103 | 0.9 | 1.7 | 0.00 | 0.00 | 0.00 | 89 | 1009.5 |
| 20260509114400 | 52 | 103 | 0.0 | 1.7 | 0.00 | 0.00 | 0.00 | 89 | 1009.6 |
| 20260509114100 | 52 | 103 | 0.0 | 0.9 | 0.00 | 0.00 | 0.00 | 89 | 1009.6 |
| 20260509114001 | 52 | 103 | 0.0 | 0.9 | 0.00 | 0.00 | 0.00 | 89 | 1009.7 |
| 20260509113900 | 52 | 103 | 0.0 | 0.9 | 0.00 | 0.00 | 0.00 | 89 | 1009.7 |
| 20260509113759 | 52 | 103 | 0.0 | 1.7 | 0.00 | 0.00 | 0.00 | 89 | 1009.7 |
| 20260509113700 | 52 | 103 | 0.0 | 1.7 | 0.00 | 0.00 | 0.00 | 89 | 1009.7 |
| 20260509113601 | 52 | 103 | 0.0 | 1.7 | 0.00 | 0.00 | 0.00 | 88 | 1009.7 |
| 20260509113504 | 52 | 103 | 0.0 | 1.7 | 0.00 | 0.00 | 0.00 | 88 | 1009.7 |
| 20260509113300 | 52 | 103 | 0.0 | 1.7 | 0.00 | 0.00 | 0.00 | 88 | 1009.7 |
| 20260509113159 | 52 | 103 | 0.0 | 1.7 | 0.00 | 0.00 | 0.00 | 88 | 1009.7 |
| 20260509113059 | 52 | 103 | 0.9 | 1.7 | 0.00 | 0.00 | 0.00 | 88 | 1009.7 |
| 20260509113005 | 52 | 103 | 0.0 | 1.7 | 0.00 | 0.00 | 0.00 | 88 | 1009.5 |
| 20260509112900 | 52 | 103 | 0.9 | 1.7 | 0.00 | 0.00 | 0.00 | 88 | 1009.5 |
| 20260509112800 | 52 | 103 | 0.0 | 1.7 | 0.00 | 0.00 | 0.00 | 88 | 1009.7 |
| 20260509112658 | 52 | 103 | 0.0 | 1.7 | 0.00 | 0.00 | 0.00 | 88 | 1009.6 |
| 20260509112600 | 52 | 103 | 0.9 | 1.7 | 0.00 | 0.00 | 0.00 | 88 | 1009.5 |
| 20260509112505 | 52 | 103 | 0.0 | 1.7 | 0.00 | 0.00 | 0.00 | 88 | 1009.5 |
| 20260509112400 | 52 | 103 | 0.0 | 1.7 | 0.00 | 0.00 | 0.00 | 87 | 1009.5 |
| 20260509112300 | 52 | 103 | 0.9 | 3.5 | 0.00 | 0.00 | 0.00 | 87 | 1009.5 |
| 20260509112201 | 52 | 103 | 0.0 | 3.5 | 0.00 | 0.00 | 0.00 | 87 | 1009.6 |
| 20260509112100 | 52 | 103 | 0.0 | 3.5 | 0.00 | 0.00 | 0.00 | 87 | 1009.6 |
| 20260509112005 | 52 | 103 | 0.0 | 3.5 | 0.00 | 0.00 | 0.00 | 87 | 1009.5 |
| 20260509111859 | 52 | 103 | 0.0 | 3.5 | 0.00 | 0.00 | 0.00 | 87 | 1009.6 |
| 20260509111801 | 52 | 103 | 0.0 | 3.5 | 0.00 | 0.00 | 0.00 | 87 | 1009.6 |
| 20260509111659 | 52 | 103 | 0.0 | 3.5 | 0.00 | 0.00 | 0.00 | 87 | 1009.5 |
| 20260509111601 | 52 | 103 | 0.9 | 3.5 | 0.00 | 0.00 | 0.00 | 87 | 1009.5 |
| 20260509111504 | 52 | 103 | 0.0 | 3.5 | 0.00 | 0.00 | 0.00 | 87 | 1009.5 |
| 20260509111359 | 52 | 103 | 0.9 | 3.5 | 0.00 | 0.00 | 0.00 | 87 | 1009.5 |
| 20260509111300 | 52 | 103 | 1.7 | 3.5 | 0.00 | 0.00 | 0.00 | 87 | 1009.5 |
| 20260509111200 | 52 | 103 | 0.0 | 3.5 | 0.00 | 0.00 | 0.00 | 87 | 1009.5 |
| 20260509111004 | 52 | 103 | 0.0 | 3.5 | 0.00 | 0.00 | 0.00 | 87 | 1009.3 |
| 20260509110900 | 52 | 103 | 1.7 | 3.5 | 0.00 | 0.00 | 0.00 | 87 | 1009.3 |
| 20260509110759 | 52 | 102 | 1.7 | 3.5 | 0.00 | 0.00 | 0.00 | 87 | 1009.3 |
| 20260509110700 | 52 | 103 | 1.7 | 3.5 | 0.00 | 0.00 | 0.00 | 86 | 1009.4 |
| 20260509110600 | 52 | 104 | 0.0 | 3.5 | 0.00 | 0.00 | 0.00 | 86 | 1009.5 |
| 20260509110505 | 52 | 104 | 0.0 | 3.5 | 0.00 | 0.00 | 0.00 | 86 | 1009.5 |
| 20260509110159 | 51 | 104 | 2.6 | 3.5 | 0.00 | 0.00 | 0.00 | 87 | 1009.4 |
| 20260509110100 | 51 | 103 | 0.9 | 3.5 | 0.00 | 0.00 | 0.00 | 87 | 1009.2 |
| 20260509110006 | 51 | 103 | 2.6 | 3.5 | 0.00 | 0.00 | 0.00 | 87 | 1009.3 |
| 20260509105759 | 51 | 146 | 0.9 | 3.5 | 0.00 | 0.00 | 0.00 | 87 | 1009.2 |
| 20260509105700 | 51 | 146 | 0.0 | 3.5 | 0.00 | 0.00 | 0.00 | 87 | 1009.1 |
| 20260509105600 | 51 | 111 | 0.9 | 3.5 | 0.00 | 0.00 | 0.00 | 87 | 1009.1 |
| 20260509105504 | 51 | 111 | 0.9 | 3.5 | 0.00 | 0.00 | 0.00 | 87 | 1009.2 |
| 20260509105400 | 51 | 80 | 0.9 | 2.6 | 0.00 | 0.00 | 0.00 | 87 | 1009.2 |
| 20260509105101 | 51 | 77 | 0.0 | 0.0 | 0.00 | 0.00 | 0.00 | 88 | 1009.1 |
| 20260509105006 | 51 | 77 | 0.0 | 0.0 | 0.00 | 0.00 | 0.00 | 88 | 1009.1 |
| 20260509104759 | 51 | 77 | 0.0 | 0.0 | 0.00 | 0.00 | 0.00 | 88 | 1009.2 |
| 20260509104659 | 51 | 77 | 0.0 | 0.0 | 0.00 | 0.00 | 0.00 | 88 | 1009.2 |
| 20260509104500 | 50 | 78 | 0.0 | 0.0 | 0.00 | 0.00 | 0.00 | 88 | 1009.2 |
| 20260509104359 | 50 | 77 | 0.0 | 0.0 | 0.00 | 0.00 | 0.00 | 88 | 1009.1 |
| 20260509104300 | 50 | 76 | 0.0 | 0.0 | 0.00 | 0.00 | 0.00 | 88 | 1009.2 |
| 20260509104200 | 50 | 76 | 0.0 | 0.0 | 0.00 | 0.00 | 0.00 | 88 | 1009.2 |
| 20260509104004 | 50 | 76 | 0.0 | 0.0 | 0.00 | 0.00 | 0.00 | 89 | 1009.3 |
| 20260509103900 | 50 | 76 | 0.0 | 0.0 | 0.00 | 0.00 | 0.00 | 89 | 1009.2 |
| 20260509103759 | 50 | 76 | 0.0 | 0.0 | 0.00 | 0.00 | 0.00 | 89 | 1009.2 |
| 20260509103559 | 50 | 76 | 0.0 | 0.0 | 0.00 | 0.00 | 0.00 | 89 | 1009.3 |
| 20260509103505 | 50 | 76 | 0.0 | 0.0 | 0.00 | 0.00 | 0.00 | 89 | 1009.1 |
| 20260509103400 | 50 | 76 | 0.0 | 0.0 | 0.00 | 0.00 | 0.00 | 89 | 1009.1 |
| 20260509103259 | 50 | 76 | 0.0 | 0.0 | 0.00 | 0.00 | 0.00 | 89 | 1009.1 |
| 20260509103200 | 50 | 76 | 0.0 | 0.0 | 0.00 | 0.00 | 0.00 | 89 | 1009.2 |
| 20260509103101 | 50 | 76 | 0.0 | 0.0 | 0.00 | 0.00 | 0.00 | 90 | 1009.3 |
| 20260509103004 | 50 | 76 | 0.0 | 0.0 | 0.00 | 0.00 | 0.00 | 90 | 1009.3 |
| 20260509102859 | 50 | 76 | 0.0 | 0.0 | 0.00 | 0.00 | 0.00 | 90 | 1009.3 |
| 20260509102803 | 50 | 76 | 0.0 | 0.0 | 0.00 | 0.00 | 0.00 | 90 | 1009.3 |
| 20260509102700 | 50 | 76 | 0.0 | 0.0 | 0.00 | 0.00 | 0.00 | 90 | 1009.2 |
| 20260509102559 | 50 | 76 | 0.0 | 0.0 | 0.00 | 0.00 | 0.00 | 90 | 1009.2 |
| 20260509102504 | 51 | 76 | 0.0 | 0.0 | 0.00 | 0.00 | 0.00 | 90 | 1009.2 |
| 20260509102401 | 51 | 76 | 0.0 | 0.0 | 0.00 | 0.00 | 0.00 | 90 | 1009.2 |
| 20260509102259 | 51 | 76 | 0.0 | 0.0 | 0.00 | 0.00 | 0.00 | 90 | 1009.2 |
| 20260509102200 | 51 | 76 | 0.0 | 0.0 | 0.00 | 0.00 | 0.00 | 89 | 1009.2 |
| 20260509102059 | 50 | 76 | 0.0 | 0.0 | 0.00 | 0.00 | 0.00 | 89 | 1009.3 |
| 20260509101900 | 50 | 76 | 0.0 | 0.0 | 0.00 | 0.00 | 0.00 | 89 | 1009.3 |
| 20260509101800 | 50 | 76 | 0.0 | 0.0 | 0.00 | 0.00 | 0.00 | 89 | 1009.3 |
| 20260509101700 | 50 | 76 | 0.0 | 0.0 | 0.00 | 0.00 | 0.00 | 89 | 1009.3 |
| 20260509101600 | 50 | 76 | 0.0 | 0.0 | 0.00 | 0.00 | 0.00 | 89 | 1009.2 |
| 20260509101504 | 50 | 76 | 0.0 | 0.0 | 0.00 | 0.00 | 0.00 | 89 | 1009.2 |
| 20260509101400 | 50 | 76 | 0.0 | 0.0 | 0.00 | 0.00 | 0.00 | 88 | 1009.2 |
| 20260509101300 | 50 | 76 | 0.0 | 0.0 | 0.00 | 0.00 | 0.00 | 88 | 1009.2 |
| 20260509101200 | 50 | 76 | 0.0 | 0.0 | 0.00 | 0.00 | 0.00 | 88 | 1009.2 |
| 20260509101101 | 50 | 76 | 0.0 | 0.0 | 0.00 | 0.00 | 0.00 | 88 | 1009.2 |
| 20260509101004 | 50 | 76 | 0.0 | 0.0 | 0.00 | 0.00 | 0.00 | 88 | 1009.3 |
| 20260509100859 | 50 | 76 | 0.0 | 0.0 | 0.00 | 0.00 | 0.00 | 88 | 1009.3 |
| 20260509100801 | 50 | 76 | 0.0 | 0.0 | 0.00 | 0.00 | 0.00 | 89 | 1009.2 |
| 20260509100659 | 50 | 76 | 0.0 | 0.0 | 0.00 | 0.00 | 0.00 | 89 | 1009.2 |
| 20260509100600 | 50 | 76 | 0.0 | 0.0 | 0.00 | 0.00 | 0.00 | 89 | 1009.3 |
| 20260509100359 | 50 | 76 | 0.0 | 0.9 | 0.00 | 0.00 | 0.00 | 89 | 1009.2 |
| 20260509100259 | 50 | 76 | 0.0 | 0.9 | 0.00 | 0.00 | 0.00 | 89 | 1009.2 |
| 20260509100200 | 50 | 76 | 0.0 | 0.9 | 0.00 | 0.00 | 0.00 | 89 | 1009.2 |
| 20260509100100 | 50 | 76 | 0.0 | 0.9 | 0.00 | 0.00 | 0.00 | 90 | 1009.2 |
| 20260509100006 | 50 | 76 | 0.0 | 0.9 | 0.00 | 0.00 | 0.00 | 89 | 1009.1 |
| 20260509095900 | 50 | 76 | 0.0 | 0.9 | 0.00 | 0.00 | 0.00 | 90 | 1009.2 |
| 20260509095759 | 50 | 76 | 0.0 | 1.7 | 0.00 | 0.00 | 0.00 | 90 | 1009.1 |
| 20260509095659 | 50 | 76 | 0.0 | 1.7 | 0.00 | 0.00 | 0.00 | 90 | 1009.1 |
| 20260509095305 | 50 | 76 | 0.0 | 1.7 | 0.00 | 0.00 | 0.00 | 90 | 1009.2 |
| 20260509095159 | 50 | 76 | 0.0 | 1.7 | 0.00 | 0.00 | 0.00 | 90 | 1009.0 |
| 20260509095059 | 50 | 76 | 0.0 | 1.7 | 0.00 | 0.00 | 0.00 | 90 | 1009.0 |
| 20260509095001 | 50 | 76 | 0.0 | 1.7 | 0.00 | 0.00 | 0.00 | 90 | 1009.0 |
| 20260509094900 | 50 | 76 | 0.0 | 1.7 | 0.00 | 0.00 | 0.00 | 90 | 1009.0 |
| 20260509094759 | 50 | 76 | 0.0 | 0.9 | 0.00 | 0.00 | 0.00 | 90 | 1009.0 |
| 20260509094559 | 50 | 76 | 0.0 | 0.9 | 0.00 | 0.00 | 0.00 | 90 | 1009.0 |
| 20260509094506 | 50 | 76 | 0.0 | 0.9 | 0.00 | 0.00 | 0.00 | 90 | 1009.0 |
| 20260509094401 | 50 | 76 | 0.0 | 0.9 | 0.00 | 0.00 | 0.00 | 90 | 1009.0 |
| 20260509094301 | 50 | 76 | 0.0 | 1.7 | 0.00 | 0.00 | 0.00 | 90 | 1009.0 |
| 20260509094159 | 49 | 76 | 0.0 | 1.7 | 0.00 | 0.00 | 0.00 | 90 | 1009.0 |
| 20260509094101 | 49 | 76 | 0.0 | 1.7 | 0.00 | 0.00 | 0.00 | 90 | 1009.0 |
| 20260509094005 | 49 | 76 | 0.0 | 1.7 | 0.00 | 0.00 | 0.00 | 90 | 1009.1 |
| 20260509093901 | 49 | 76 | 0.0 | 1.7 | 0.00 | 0.00 | 0.00 | 90 | 1009.1 |
| 20260509093700 | 49 | 76 | 0.9 | 1.7 | 0.00 | 0.00 | 0.00 | 91 | 1009.2 |
| 20260509093505 | 49 | 76 | 0.9 | 1.7 | 0.00 | 0.00 | 0.00 | 91 | 1009.3 |
| 20260509093400 | 49 | 76 | 0.0 | 1.7 | 0.00 | 0.00 | 0.00 | 90 | 1009.3 |
| 20260509093258 | 49 | 76 | 0.9 | 0.9 | 0.00 | 0.00 | 0.00 | 90 | 1009.3 |
| 20260509093159 | 49 | 76 | 0.0 | 0.9 | 0.00 | 0.00 | 0.00 | 90 | 1009.3 |
| 20260509093101 | 49 | 76 | 0.0 | 1.7 | 0.00 | 0.00 | 0.00 | 91 | 1009.4 |
| 20260509093006 | 49 | 76 | 0.0 | 1.7 | 0.00 | 0.00 | 0.00 | 91 | 1009.4 |
| 20260509092859 | 49 | 76 | 0.0 | 1.7 | 0.00 | 0.00 | 0.00 | 91 | 1009.4 |
| 20260509092759 | 49 | 76 | 0.0 | 1.7 | 0.00 | 0.00 | 0.00 | 91 | 1009.4 |
| 20260509092701 | 49 | 76 | 0.9 | 1.7 | 0.00 | 0.00 | 0.00 | 91 | 1009.4 |
| 20260509092505 | 49 | 76 | 0.0 | 1.7 | 0.00 | 0.00 | 0.00 | 91 | 1009.4 |
| 20260509092400 | 49 | 76 | 0.0 | 1.7 | 0.00 | 0.00 | 0.00 | 91 | 1009.3 |
| 20260509092259 | 49 | 76 | 0.0 | 1.7 | 0.00 | 0.00 | 0.00 | 91 | 1009.4 |
| 20260509092200 | 49 | 76 | 0.9 | 1.7 | 0.00 | 0.00 | 0.00 | 92 | 1009.4 |
| 20260509092059 | 49 | 76 | 0.0 | 1.7 | 0.00 | 0.00 | 0.00 | 92 | 1009.4 |
| 20260509092005 | 49 | 76 | 0.0 | 0.0 | 0.00 | 0.00 | 0.00 | 92 | 1009.4 |
| 20260509091859 | 49 | 76 | 0.0 | 0.0 | 0.00 | 0.00 | 0.00 | 92 | 1009.4 |
| 20260509091801 | 49 | 76 | 0.0 | 0.9 | 0.00 | 0.00 | 0.00 | 92 | 1009.4 |
| 20260509091700 | 49 | 76 | 0.0 | 1.7 | 0.00 | 0.00 | 0.00 | 92 | 1009.3 |
| 20260509091559 | 49 | 76 | 0.0 | 1.7 | 0.00 | 0.00 | 0.00 | 92 | 1009.3 |
| 20260509091505 | 49 | 76 | 0.0 | 1.7 | 0.00 | 0.00 | 0.00 | 92 | 1009.3 |
| 20260509091400 | 49 | 76 | 0.0 | 1.7 | 0.00 | 0.00 | 0.00 | 92 | 1009.3 |
| 20260509091300 | 49 | 76 | 0.0 | 1.7 | 0.00 | 0.00 | 0.00 | 92 | 1009.2 |
| 20260509091005 | 49 | 76 | 0.0 | 1.7 | 0.00 | 0.00 | 0.00 | 92 | 1009.1 |
| 20260509090800 | 49 | 76 | 0.0 | 1.7 | 0.00 | 0.00 | 0.00 | 92 | 1009.1 |
| 20260509090701 | 49 | 53 | 0.0 | 1.7 | 0.00 | 0.00 | 0.00 | 92 | 1009.1 |
| 20260509090505 | 49 | 53 | 0.0 | 1.7 | 0.00 | 0.00 | 0.00 | 93 | 1009.1 |
| 20260509090401 | 49 | 53 | 0.0 | 1.7 | 0.00 | 0.00 | 0.00 | 93 | 1009.1 |
| 20260509090200 | 49 | 53 | 0.0 | 1.7 | 0.00 | 0.00 | 0.00 | 93 | 1009.2 |
| 20260509090100 | 49 | 53 | 0.0 | 1.7 | 0.00 | 0.00 | 0.00 | 93 | 1009.2 |
| 20260509090004 | 49 | 53 | 0.9 | 1.7 | 0.00 | 0.00 | 0.00 | 93 | 1009.2 |
| 20260509085900 | 48 | 53 | 0.9 | 1.7 | 0.00 | 0.00 | 0.00 | 93 | 1009.3 |
| 20260509085759 | 48 | 53 | 0.0 | 0.0 | 0.00 | 0.00 | 0.00 | 93 | 1009.2 |
| 20260509085659 | 49 | 53 | 0.0 | 0.0 | 0.00 | 0.00 | 0.00 | 93 | 1009.2 |
| 20260509085602 | 48 | 53 | 0.0 | 0.0 | 0.00 | 0.00 | 0.00 | 93 | 1009.2 |
| 20260509085400 | 48 | 53 | 0.0 | 0.0 | 0.00 | 0.00 | 0.00 | 93 | 1009.2 |
| 20260509085100 | 48 | 53 | 0.0 | 0.0 | 0.00 | 0.00 | 0.00 | 94 | 1009.2 |
| 20260509085005 | 48 | 53 | 0.0 | 0.0 | 0.00 | 0.00 | 0.00 | 94 | 1009.2 |
| 20260509084900 | 48 | 53 | 0.0 | 0.0 | 0.00 | 0.00 | 0.00 | 93 | 1009.2 |
| 20260509084800 | 48 | 53 | 0.0 | 0.0 | 0.00 | 0.00 | 0.00 | 93 | 1009.2 |
| 20260509084700 | 48 | 53 | 0.0 | 0.0 | 0.00 | 0.00 | 0.00 | 93 | 1009.2 |
| 20260509084359 | 48 | 53 | 0.0 | 0.0 | 0.00 | 0.00 | 0.00 | 94 | 1009.4 |
| 20260509084201 | 48 | 53 | 0.0 | 0.0 | 0.00 | 0.00 | 0.00 | 93 | 1009.4 |
| 20260509084100 | 48 | 53 | 0.0 | 0.0 | 0.00 | 0.00 | 0.00 | 94 | 1009.4 |
| 20260509084004 | 48 | 53 | 0.0 | 0.0 | 0.00 | 0.00 | 0.00 | 94 | 1009.4 |
| 20260509083859 | 48 | 53 | 0.0 | 0.0 | 0.00 | 0.00 | 0.00 | 94 | 1009.4 |
| 20260509083759 | 48 | 53 | 0.0 | 0.0 | 0.00 | 0.00 | 0.00 | 94 | 1009.4 |
| 20260509083700 | 48 | 53 | 0.0 | 0.0 | 0.00 | 0.00 | 0.00 | 94 | 1009.5 |
| 20260509083600 | 48 | 53 | 0.0 | 0.0 | 0.00 | 0.00 | 0.00 | 94 | 1009.4 |
| 20260509083401 | 48 | 53 | 0.0 | 0.0 | 0.00 | 0.00 | 0.00 | 94 | 1009.4 |
| 20260509083300 | 48 | 53 | 0.0 | 0.0 | 0.00 | 0.00 | 0.00 | 94 | 1009.4 |
| 20260509083100 | 49 | 53 | 0.0 | 0.0 | 0.00 | 0.00 | 0.00 | 94 | 1009.5 |
| 20260509083005 | 49 | 53 | 0.0 | 0.0 | 0.00 | 0.00 | 0.00 | 94 | 1009.5 |
| 20260509082901 | 48 | 53 | 0.0 | 0.0 | 0.00 | 0.00 | 0.00 | 94 | 1009.5 |
| 20260509082800 | 48 | 53 | 0.0 | 0.0 | 0.00 | 0.00 | 0.00 | 94 | 1009.5 |
| 20260509082659 | 48 | 53 | 0.0 | 0.0 | 0.00 | 0.00 | 0.00 | 94 | 1009.5 |
| 20260509082601 | 48 | 53 | 0.0 | 0.0 | 0.00 | 0.00 | 0.00 | 94 | 1009.5 |
| 20260509082504 | 48 | 53 | 0.0 | 0.0 | 0.00 | 0.00 | 0.00 | 93 | 1009.4 |
| 20260509082359 | 48 | 53 | 0.0 | 0.0 | 0.00 | 0.00 | 0.00 | 93 | 1009.4 |
| 20260509082259 | 48 | 53 | 0.0 | 0.0 | 0.00 | 0.00 | 0.00 | 93 | 1009.4 |
| 20260509082201 | 48 | 53 | 0.0 | 0.0 | 0.00 | 0.00 | 0.00 | 93 | 1009.4 |
| 20260509082059 | 48 | 53 | 0.0 | 0.0 | 0.00 | 0.00 | 0.00 | 93 | 1009.3 |
| 20260509082006 | 48 | 53 | 0.0 | 0.0 | 0.00 | 0.00 | 0.00 | 93 | 1009.3 |
| 20260509081800 | 48 | 53 | 0.0 | 0.0 | 0.00 | 0.00 | 0.00 | 93 | 1009.3 |
| 20260509081659 | 48 | 53 | 0.0 | 0.0 | 0.00 | 0.00 | 0.00 | 93 | 1009.3 |
| 20260509081600 | 48 | 53 | 0.0 | 0.0 | 0.00 | 0.00 | 0.00 | 93 | 1009.3 |
| 20260509081505 | 48 | 53 | 0.0 | 0.0 | 0.00 | 0.00 | 0.00 | 93 | 1009.3 |
| 20260509081359 | 48 | 53 | 0.0 | 0.0 | 0.00 | 0.00 | 0.00 | 93 | 1009.3 |
| 20260509081300 | 48 | 53 | 0.0 | 0.0 | 0.00 | 0.00 | 0.00 | 93 | 1009.3 |
| 20260509081200 | 48 | 53 | 0.0 | 0.0 | 0.00 | 0.00 | 0.00 | 93 | 1009.3 |
| 20260509081100 | 48 | 53 | 0.0 | 0.0 | 0.00 | 0.00 | 0.00 | 93 | 1009.3 |
| 20260509081005 | 48 | 53 | 0.0 | 0.0 | 0.00 | 0.00 | 0.00 | 93 | 1009.3 |
| 20260509080901 | 48 | 53 | 0.0 | 0.0 | 0.00 | 0.00 | 0.00 | 93 | 1009.4 |
| 20260509080800 | 48 | 53 | 0.0 | 0.0 | 0.00 | 0.00 | 0.00 | 93 | 1009.4 |
| 20260509080700 | 48 | 53 | 0.0 | 0.0 | 0.00 | 0.00 | 0.00 | 93 | 1009.4 |
| 20260509080559 | 48 | 53 | 0.0 | 0.0 | 0.00 | 0.00 | 0.00 | 93 | 1009.4 |
| 20260509080505 | 48 | 53 | 0.0 | 0.0 | 0.00 | 0.00 | 0.00 | 93 | 1009.4 |
| 20260509080401 | 48 | 53 | 0.0 | 0.0 | 0.00 | 0.00 | 0.00 | 93 | 1009.4 |
| 20260509080300 | 48 | 53 | 0.0 | 0.0 | 0.00 | 0.00 | 0.00 | 93 | 1009.4 |
| 20260509080201 | 48 | 53 | 0.0 | 0.0 | 0.00 | 0.00 | 0.00 | 93 | 1009.4 |
| 20260509080059 | 48 | 53 | 0.0 | 0.0 | 0.00 | 0.00 | 0.00 | 93 | 1009.4 |
| 20260509080005 | 48 | 53 | 0.0 | 0.0 | 0.00 | 0.00 | 0.00 | 93 | 1009.4 |
| 20260509075801 | 48 | 53 | 0.0 | 0.0 | 0.00 | 0.00 | 0.00 | 93 | 1009.4 |
| 20260509075700 | 48 | 53 | 0.0 | 0.9 | 0.00 | 0.00 | 0.00 | 93 | 1009.4 |
| 20260509075600 | 48 | 53 | 0.0 | 0.9 | 0.00 | 0.00 | 0.00 | 93 | 1009.4 |
| 20260509075505 | 48 | 53 | 0.0 | 0.9 | 0.00 | 0.00 | 0.00 | 93 | 1009.4 |
| 20260509075359 | 48 | 53 | 0.0 | 0.9 | 0.00 | 0.00 | 0.00 | 93 | 1009.4 |
| 20260509075200 | 48 | 53 | 0.0 | 0.9 | 0.00 | 0.00 | 0.00 | 93 | 1009.4 |
| 20260509075001 | 48 | 53 | 0.0 | 0.9 | 0.00 | 0.00 | 0.00 | 93 | 1009.4 |
| 20260509074900 | 48 | 53 | 0.0 | 0.9 | 0.00 | 0.00 | 0.00 | 93 | 1009.4 |
| 20260509074801 | 48 | 53 | 0.9 | 0.9 | 0.00 | 0.00 | 0.00 | 93 | 1009.5 |
| 20260509074659 | 48 | 53 | 0.0 | 0.0 | 0.00 | 0.00 | 0.00 | 93 | 1009.5 |
| 20260509074501 | 48 | 53 | 0.0 | 0.0 | 0.00 | 0.00 | 0.00 | 93 | 1009.5 |
| 20260509074359 | 48 | 53 | 0.0 | 0.0 | 0.00 | 0.00 | 0.00 | 93 | 1009.5 |
| 20260509074259 | 48 | 53 | 0.0 | 0.9 | 0.00 | 0.00 | 0.00 | 93 | 1009.5 |
| 20260509074200 | 48 | 53 | 0.0 | 0.9 | 0.00 | 0.00 | 0.00 | 93 | 1009.5 |
| 20260509074002 | 48 | 53 | 0.0 | 0.9 | 0.00 | 0.00 | 0.00 | 93 | 1009.6 |
| 20260509073900 | 48 | 53 | 0.0 | 0.9 | 0.00 | 0.00 | 0.00 | 93 | 1009.6 |
| 20260509073759 | 48 | 53 | 0.0 | 0.9 | 0.00 | 0.00 | 0.00 | 93 | 1009.6 |
| 20260509073659 | 48 | 53 | 0.0 | 0.9 | 0.00 | 0.00 | 0.00 | 93 | 1009.6 |
| 20260509073259 | 48 | 53 | 0.0 | 0.9 | 0.00 | 0.00 | 0.00 | 93 | 1009.6 |
| 20260509073200 | 48 | 53 | 0.9 | 0.9 | 0.00 | 0.00 | 0.00 | 93 | 1009.5 |
| 20260509072901 | 48 | 53 | 0.0 | 0.9 | 0.00 | 0.00 | 0.00 | 93 | 1009.6 |
| 20260509072801 | 48 | 53 | 0.0 | 0.9 | 0.00 | 0.00 | 0.00 | 92 | 1009.6 |
| 20260509072659 | 48 | 53 | 0.0 | 0.9 | 0.00 | 0.00 | 0.00 | 92 | 1009.6 |
| 20260509072600 | 48 | 53 | 0.0 | 0.9 | 0.00 | 0.00 | 0.00 | 92 | 1009.6 |
| 20260509072504 | 48 | 53 | 0.0 | 0.9 | 0.00 | 0.00 | 0.00 | 92 | 1009.6 |
| 20260509072259 | 48 | 53 | 0.0 | 0.9 | 0.00 | 0.00 | 0.00 | 92 | 1009.6 |
| 20260509072201 | 48 | 53 | 0.0 | 0.9 | 0.00 | 0.00 | 0.00 | 92 | 1009.6 |
| 20260509072059 | 48 | 53 | 0.0 | 0.9 | 0.00 | 0.00 | 0.00 | 92 | 1009.6 |
| 20260509072004 | 48 | 53 | 0.0 | 0.9 | 0.00 | 0.00 | 0.00 | 92 | 1009.6 |
| 20260509071900 | 48 | 53 | 0.0 | 0.9 | 0.00 | 0.00 | 0.00 | 92 | 1009.6 |
| 20260509071800 | 48 | 53 | 0.0 | 0.9 | 0.00 | 0.00 | 0.00 | 92 | 1009.7 |
| 20260509071659 | 48 | 53 | 0.0 | 0.9 | 0.00 | 0.00 | 0.00 | 92 | 1009.7 |
| 20260509071504 | 48 | 53 | 0.0 | 0.9 | 0.00 | 0.00 | 0.00 | 92 | 1009.8 |
| 20260509071359 | 48 | 53 | 0.0 | 0.0 | 0.00 | 0.00 | 0.00 | 92 | 1009.8 |
| 20260509071259 | 48 | 53 | 0.0 | 0.0 | 0.00 | 0.00 | 0.00 | 92 | 1009.8 |
| 20260509071200 | 48 | 53 | 0.0 | 0.0 | 0.00 | 0.00 | 0.00 | 92 | 1009.8 |
| 20260509071100 | 48 | 53 | 0.0 | 0.0 | 0.00 | 0.00 | 0.00 | 92 | 1009.8 |
| 20260509071004 | 48 | 53 | 0.0 | 0.0 | 0.00 | 0.00 | 0.00 | 91 | 1009.8 |
| 20260509070901 | 48 | 53 | 0.0 | 0.0 | 0.00 | 0.00 | 0.00 | 91 | 1009.8 |
| 20260509070659 | 48 | 53 | 0.0 | 0.0 | 0.00 | 0.00 | 0.00 | 91 | 1009.9 |
| 20260509070600 | 48 | 53 | 0.0 | 0.0 | 0.00 | 0.00 | 0.00 | 91 | 1009.9 |
| 20260509070504 | 48 | 53 | 0.0 | 0.0 | 0.00 | 0.00 | 0.00 | 91 | 1010.0 |
| 20260509070400 | 48 | 53 | 0.0 | 0.0 | 0.00 | 0.00 | 0.00 | 90 | 1009.9 |
| 20260509070301 | 48 | 53 | 0.0 | 0.0 | 0.00 | 0.00 | 0.00 | 90 | 1009.9 |
| 20260509070200 | 48 | 53 | 0.0 | 0.0 | 0.00 | 0.00 | 0.00 | 90 | 1009.9 |
| 20260509070100 | 48 | 53 | 0.0 | 0.0 | 0.00 | 0.00 | 0.00 | 90 | 1009.9 |
| 20260509070000 | 48 | 53 | 0.0 | 0.0 | 0.00 | 0.00 | 0.00 | 90 | 1009.9 |
| 20260509065901 | 48 | 53 | 0.0 | 0.0 | 0.00 | 0.00 | 0.00 | 90 | 1009.9 |
| 20260509065800 | 49 | 53 | 0.0 | 0.0 | 0.00 | 0.00 | 0.00 | 90 | 1009.9 |
| 20260509065701 | 49 | 53 | 0.0 | 0.0 | 0.00 | 0.00 | 0.00 | 90 | 1009.9 |
| 20260509065400 | 49 | 53 | 0.0 | 0.0 | 0.00 | 0.00 | 0.00 | 90 | 1009.9 |
| 20260509065300 | 49 | 53 | 0.0 | 0.0 | 0.00 | 0.00 | 0.00 | 90 | 1009.9 |
| 20260509065200 | 49 | 53 | 0.0 | 0.0 | 0.00 | 0.00 | 0.00 | 90 | 1009.9 |
| 20260509065100 | 49 | 53 | 0.0 | 0.0 | 0.00 | 0.00 | 0.00 | 90 | 1009.9 |
| 20260509065004 | 49 | 53 | 0.0 | 0.0 | 0.00 | 0.00 | 0.00 | 90 | 1009.9 |
| 20260509064800 | 49 | 53 | 0.0 | 0.0 | 0.00 | 0.00 | 0.00 | 89 | 1009.9 |
| 20260509064701 | 49 | 53 | 0.0 | 0.0 | 0.00 | 0.00 | 0.00 | 89 | 1009.9 |
| 20260509064600 | 49 | 53 | 0.0 | 0.0 | 0.00 | 0.00 | 0.00 | 89 | 1009.9 |
| 20260509064504 | 49 | 53 | 0.0 | 0.0 | 0.00 | 0.00 | 0.00 | 89 | 1009.9 |
| 20260509064400 | 49 | 53 | 0.0 | 0.0 | 0.00 | 0.00 | 0.00 | 89 | 1009.8 |
| 20260509064300 | 50 | 53 | 0.0 | 0.0 | 0.00 | 0.00 | 0.00 | 89 | 1009.9 |
| 20260509064102 | 50 | 53 | 0.0 | 0.9 | 0.00 | 0.00 | 0.00 | 89 | 1009.8 |
| 20260509064005 | 50 | 53 | 0.0 | 0.9 | 0.00 | 0.00 | 0.00 | 89 | 1009.9 |
| 20260509063901 | 50 | 53 | 0.0 | 0.9 | 0.00 | 0.00 | 0.00 | 88 | 1009.9 |
| 20260509063759 | 50 | 53 | 0.0 | 0.9 | 0.00 | 0.00 | 0.00 | 88 | 1009.9 |
| 20260509063700 | 50 | 53 | 0.0 | 0.9 | 0.00 | 0.00 | 0.00 | 88 | 1009.9 |
| 20260509063501 | 50 | 53 | 0.0 | 0.9 | 0.00 | 0.00 | 0.00 | 88 | 1009.9 |
| 20260509063301 | 50 | 53 | 0.0 | 0.9 | 0.00 | 0.00 | 0.00 | 88 | 1009.9 |
| 20260509063201 | 50 | 53 | 0.0 | 0.9 | 0.00 | 0.00 | 0.00 | 88 | 1009.9 |
| 20260509063005 | 50 | 53 | 0.0 | 0.0 | 0.00 | 0.00 | 0.00 | 88 | 1009.9 |
| 20260509062902 | 50 | 53 | 0.0 | 0.0 | 0.00 | 0.00 | 0.00 | 88 | 1009.9 |
| 20260509062800 | 50 | 53 | 0.0 | 0.0 | 0.00 | 0.00 | 0.00 | 88 | 1010.0 |
| 20260509062600 | 51 | 53 | 0.0 | 0.0 | 0.00 | 0.00 | 0.00 | 88 | 1010.0 |
| 20260509062505 | 51 | 53 | 0.0 | 0.0 | 0.00 | 0.00 | 0.00 | 88 | 1010.0 |
| 20260509062400 | 51 | 53 | 0.0 | 0.0 | 0.00 | 0.00 | 0.00 | 88 | 1010.0 |
| 20260509062300 | 51 | 53 | 0.0 | 0.0 | 0.00 | 0.00 | 0.00 | 87 | 1010.0 |
| 20260509062200 | 51 | 53 | 0.0 | 0.0 | 0.00 | 0.00 | 0.00 | 87 | 1010.0 |
| 20260509062058 | 51 | 53 | 0.0 | 0.0 | 0.00 | 0.00 | 0.00 | 87 | 1010.0 |
| 20260509062005 | 51 | 53 | 0.0 | 0.0 | 0.00 | 0.00 | 0.00 | 87 | 1010.1 |
| 20260509061900 | 51 | 53 | 0.0 | 0.0 | 0.00 | 0.00 | 0.00 | 87 | 1010.0 |
| 20260509061800 | 51 | 53 | 0.0 | 0.0 | 0.00 | 0.00 | 0.00 | 87 | 1010.0 |
| 20260509061700 | 51 | 53 | 0.0 | 0.0 | 0.00 | 0.00 | 0.00 | 87 | 1010.0 |
| 20260509061500 | 51 | 53 | 0.0 | 0.9 | 0.00 | 0.00 | 0.00 | 87 | 1010.1 |
| 20260509061400 | 51 | 53 | 0.0 | 0.9 | 0.00 | 0.00 | 0.00 | 86 | 1010.1 |
| 20260509061259 | 51 | 53 | 0.0 | 0.9 | 0.00 | 0.00 | 0.00 | 86 | 1010.1 |
| 20260509061159 | 51 | 53 | 0.0 | 0.9 | 0.00 | 0.00 | 0.00 | 86 | 1010.1 |
| 20260509061101 | 51 | 53 | 0.0 | 0.9 | 0.00 | 0.00 | 0.00 | 87 | 1010.1 |
| 20260509061004 | 51 | 53 | 0.0 | 0.9 | 0.00 | 0.00 | 0.00 | 87 | 1010.0 |
| 20260509060900 | 51 | 53 | 0.0 | 0.9 | 0.00 | 0.00 | 0.00 | 87 | 1010.0 |
| 20260509060800 | 51 | 53 | 0.0 | 0.9 | 0.00 | 0.00 | 0.00 | 87 | 1010.0 |
| 20260509060700 | 51 | 53 | 0.0 | 0.9 | 0.00 | 0.00 | 0.00 | 87 | 1010.0 |
| 20260509060505 | 51 | 53 | 0.9 | 0.9 | 0.00 | 0.00 | 0.00 | 86 | 1009.9 |
| 20260509060300 | 51 | 53 | 0.0 | 0.0 | 0.00 | 0.00 | 0.00 | 87 | 1010.0 |
| 20260509060200 | 51 | 53 | 0.0 | 0.0 | 0.00 | 0.00 | 0.00 | 87 | 1010.0 |
| 20260509060005 | 52 | 53 | 0.0 | 0.0 | 0.00 | 0.00 | 0.00 | 87 | 1010.0 |
| 20260509055901 | 52 | 53 | 0.0 | 0.0 | 0.00 | 0.00 | 0.00 | 87 | 1010.0 |
| 20260509055800 | 52 | 53 | 0.0 | 0.0 | 0.00 | 0.00 | 0.00 | 88 | 1010.0 |
| 20260509055659 | 52 | 53 | 0.0 | 0.0 | 0.00 | 0.00 | 0.00 | 88 | 1010.1 |
| 20260509055559 | 52 | 53 | 0.0 | 0.0 | 0.00 | 0.00 | 0.00 | 88 | 1010.1 |
| 20260509055500 | 52 | 53 | 0.0 | 0.0 | 0.00 | 0.00 | 0.00 | 88 | 1010.1 |
| 20260509055358 | 52 | 53 | 0.0 | 0.0 | 0.00 | 0.00 | 0.00 | 88 | 1010.1 |
| 20260509055259 | 52 | 53 | 0.0 | 0.0 | 0.00 | 0.00 | 0.00 | 88 | 1010.1 |
| 20260509055159 | 52 | 53 | 0.0 | 0.0 | 0.00 | 0.00 | 0.00 | 88 | 1010.1 |
| 20260509055059 | 52 | 53 | 0.0 | 0.0 | 0.00 | 0.00 | 0.00 | 87 | 1010.1 |
| 20260509054959 | 52 | 53 | 0.0 | 0.0 | 0.00 | 0.00 | 0.00 | 86 | 1010.0 |
| 20260509054858 | 52 | 53 | 0.0 | 0.0 | 0.00 | 0.00 | 0.00 | 86 | 1010.0 |
| 20260509054758 | 52 | 53 | 0.0 | 0.0 | 0.00 | 0.00 | 0.00 | 85 | 1010.0 |
| 20260509054658 | 52 | 53 | 0.0 | 0.0 | 0.00 | 0.00 | 0.00 | 85 | 1010.1 |
| 20260509054600 | 52 | 53 | 0.0 | 0.0 | 0.00 | 0.00 | 0.00 | 85 | 1010.1 |
| 20260509054359 | 52 | 53 | 0.0 | 0.0 | 0.00 | 0.00 | 0.00 | 85 | 1010.0 |
| 20260509054159 | 52 | 53 | 0.0 | 0.0 | 0.00 | 0.00 | 0.00 | 85 | 1010.0 |
| 20260509054005 | 52 | 53 | 0.0 | 0.0 | 0.00 | 0.00 | 0.00 | 85 | 1010.1 |
| 20260509053759 | 52 | 53 | 0.0 | 0.0 | 0.00 | 0.00 | 0.00 | 85 | 1010.1 |
| 20260509053559 | 52 | 53 | 0.0 | 0.0 | 0.00 | 0.00 | 0.00 | 85 | 1010.2 |
| 20260509053500 | 52 | 53 | 0.0 | 0.9 | 0.00 | 0.00 | 0.00 | 85 | 1010.1 |
| 20260509053359 | 52 | 53 | 0.0 | 1.7 | 0.00 | 0.00 | 0.00 | 85 | 1010.1 |
| 20260509053258 | 53 | 53 | 0.0 | 1.7 | 0.00 | 0.00 | 0.00 | 85 | 1010.2 |
| 20260509053158 | 53 | 53 | 0.0 | 1.7 | 0.00 | 0.00 | 0.00 | 86 | 1010.2 |
| 20260509053058 | 53 | 53 | 0.0 | 1.7 | 0.00 | 0.00 | 0.00 | 85 | 1010.2 |
| 20260509053000 | 53 | 53 | 0.0 | 1.7 | 0.00 | 0.00 | 0.00 | 84 | 1010.2 |
| 20260509052859 | 53 | 53 | 0.0 | 1.7 | 0.00 | 0.00 | 0.00 | 83 | 1010.2 |
| 20260509052759 | 53 | 53 | 0.0 | 1.7 | 0.00 | 0.00 | 0.00 | 83 | 1010.2 |
| 20260509052659 | 52 | 53 | 0.0 | 1.7 | 0.00 | 0.00 | 0.00 | 83 | 1010.2 |
| 20260509052559 | 52 | 53 | 0.0 | 1.7 | 0.00 | 0.00 | 0.00 | 83 | 1010.2 |
| 20260509052500 | 52 | 53 | 0.9 | 1.7 | 0.00 | 0.00 | 0.00 | 83 | 1010.2 |
| 20260509052359 | 52 | 53 | 0.0 | 1.7 | 0.00 | 0.00 | 0.00 | 83 | 1010.2 |
| 20260509052259 | 52 | 53 | 0.0 | 0.9 | 0.00 | 0.00 | 0.00 | 84 | 1010.2 |
| 20260509052159 | 52 | 53 | 0.0 | 0.9 | 0.00 | 0.00 | 0.00 | 84 | 1010.2 |
| 20260509052100 | 52 | 53 | 0.0 | 0.9 | 0.00 | 0.00 | 0.00 | 84 | 1010.2 |
| 20260509052001 | 52 | 53 | 0.0 | 0.9 | 0.00 | 0.00 | 0.00 | 84 | 1010.2 |
| 20260509051858 | 52 | 53 | 0.0 | 0.9 | 0.00 | 0.00 | 0.00 | 84 | 1010.3 |
| 20260509051659 | 52 | 53 | 0.0 | 0.9 | 0.00 | 0.00 | 0.00 | 84 | 1010.3 |
| 20260509051500 | 52 | 53 | 0.0 | 0.0 | 0.00 | 0.00 | 0.00 | 84 | 1010.3 |
| 20260509051358 | 52 | 53 | 0.0 | 0.0 | 0.00 | 0.00 | 0.00 | 84 | 1010.3 |
| 20260509051258 | 52 | 53 | 0.0 | 0.0 | 0.00 | 0.00 | 0.00 | 84 | 1010.3 |
| 20260509051158 | 52 | 53 | 0.0 | 0.0 | 0.00 | 0.00 | 0.00 | 84 | 1010.4 |
| 20260509051058 | 52 | 53 | 0.0 | 0.9 | 0.00 | 0.00 | 0.00 | 84 | 1010.4 |
| 20260509051000 | 52 | 53 | 0.0 | 0.9 | 0.00 | 0.00 | 0.00 | 84 | 1010.4 |
| 20260509050759 | 52 | 53 | 0.0 | 0.9 | 0.00 | 0.00 | 0.00 | 84 | 1010.4 |
| 20260509050659 | 52 | 53 | 0.0 | 0.9 | 0.00 | 0.00 | 0.00 | 84 | 1010.4 |
| 20260509050500 | 52 | 53 | 0.0 | 0.9 | 0.00 | 0.00 | 0.00 | 83 | 1010.4 |
| 20260509050358 | 52 | 53 | 0.0 | 0.9 | 0.00 | 0.00 | 0.00 | 83 | 1010.4 |
| 20260509050258 | 52 | 53 | 0.0 | 0.9 | 0.00 | 0.00 | 0.00 | 84 | 1010.5 |
| 20260509050159 | 52 | 53 | 0.0 | 0.9 | 0.00 | 0.00 | 0.00 | 84 | 1010.5 |
| 20260509050059 | 52 | 53 | 0.0 | 0.9 | 0.00 | 0.00 | 0.00 | 84 | 1010.5 |
| 20260509050004 | 52 | 53 | 0.0 | 0.9 | 0.00 | 0.00 | 0.00 | 85 | 1010.5 |
| 20260509045900 | 52 | 53 | 0.0 | 0.9 | 0.00 | 0.00 | 0.00 | 85 | 1010.4 |
| 20260509045759 | 52 | 53 | 0.0 | 0.9 | 0.00 | 0.00 | 0.00 | 85 | 1010.5 |
| 20260509045700 | 52 | 53 | 0.0 | 0.9 | 0.00 | 0.00 | 0.00 | 85 | 1010.5 |
| 20260509045600 | 52 | 53 | 0.0 | 0.9 | 0.00 | 0.00 | 0.00 | 85 | 1010.4 |
| 20260509045503 | 52 | 53 | 0.0 | 0.9 | 0.00 | 0.00 | 0.00 | 85 | 1010.5 |
| 20260509045400 | 52 | 53 | 0.0 | 1.7 | 0.00 | 0.00 | 0.00 | 85 | 1010.4 |
| 20260509045259 | 52 | 53 | 0.0 | 1.7 | 0.00 | 0.00 | 0.00 | 85 | 1010.5 |
| 20260509045159 | 52 | 53 | 0.9 | 1.7 | 0.00 | 0.00 | 0.00 | 85 | 1010.5 |
| 20260509045059 | 52 | 53 | 0.0 | 1.7 | 0.00 | 0.00 | 0.00 | 85 | 1010.5 |
| 20260509045001 | 52 | 53 | 0.0 | 1.7 | 0.00 | 0.00 | 0.00 | 85 | 1010.5 |
| 20260509044800 | 52 | 53 | 0.0 | 1.7 | 0.00 | 0.00 | 0.00 | 84 | 1010.5 |
| 20260509044701 | 52 | 53 | 0.0 | 1.7 | 0.00 | 0.00 | 0.00 | 84 | 1010.5 |
| 20260509044559 | 52 | 53 | 0.0 | 1.7 | 0.00 | 0.00 | 0.00 | 85 | 1010.5 |
| 20260509044504 | 52 | 53 | 0.9 | 1.7 | 0.00 | 0.00 | 0.00 | 85 | 1010.5 |
| 20260509044359 | 52 | 53 | 0.9 | 1.7 | 0.00 | 0.00 | 0.00 | 85 | 1010.5 |
| 20260509044301 | 52 | 53 | 0.9 | 1.7 | 0.00 | 0.00 | 0.00 | 85 | 1010.5 |
| 20260509044201 | 52 | 53 | 0.0 | 0.0 | 0.00 | 0.00 | 0.00 | 86 | 1010.5 |
| 20260509044059 | 52 | 53 | 0.0 | 0.0 | 0.00 | 0.00 | 0.00 | 86 | 1010.5 |
| 20260509043901 | 52 | 53 | 0.0 | 0.9 | 0.00 | 0.00 | 0.00 | 87 | 1010.5 |
| 20260509043800 | 52 | 53 | 0.0 | 0.9 | 0.00 | 0.00 | 0.00 | 87 | 1010.5 |
| 20260509043659 | 52 | 53 | 0.0 | 1.7 | 0.00 | 0.00 | 0.00 | 87 | 1010.4 |
| 20260509043559 | 52 | 53 | 0.0 | 1.7 | 0.00 | 0.00 | 0.00 | 87 | 1010.5 |
| 20260509043506 | 52 | 53 | 0.0 | 1.7 | 0.00 | 0.00 | 0.00 | 87 | 1010.4 |
| 20260509043401 | 52 | 53 | 0.0 | 1.7 | 0.00 | 0.00 | 0.00 | 86 | 1010.4 |
| 20260509043259 | 52 | 53 | 0.0 | 1.7 | 0.00 | 0.00 | 0.00 | 86 | 1010.4 |
| 20260509043200 | 52 | 53 | 0.0 | 1.7 | 0.00 | 0.00 | 0.00 | 86 | 1010.4 |
| 20260509043101 | 52 | 53 | 0.0 | 1.7 | 0.00 | 0.00 | 0.00 | 86 | 1010.4 |
| 20260509043005 | 52 | 53 | 0.0 | 1.7 | 0.00 | 0.00 | 0.00 | 85 | 1010.4 |
| 20260509042900 | 52 | 53 | 0.0 | 1.7 | 0.00 | 0.00 | 0.00 | 85 | 1010.4 |
| 20260509042700 | 52 | 53 | 0.0 | 0.9 | 0.00 | 0.00 | 0.00 | 84 | 1010.3 |
| 20260509042559 | 52 | 53 | 0.0 | 0.9 | 0.00 | 0.00 | 0.00 | 83 | 1010.2 |
| 20260509042501 | 52 | 53 | 0.0 | 0.9 | 0.00 | 0.00 | 0.00 | 83 | 1010.2 |
| 20260509042159 | 52 | 53 | 0.0 | 0.0 | 0.00 | 0.00 | 0.00 | 83 | 1010.2 |
| 20260509042100 | 52 | 53 | 0.0 | 0.0 | 0.00 | 0.00 | 0.00 | 82 | 1010.2 |
| 20260509042002 | 52 | 53 | 0.0 | 0.0 | 0.00 | 0.00 | 0.00 | 83 | 1010.3 |
| 20260509041901 | 52 | 53 | 0.0 | 0.0 | 0.00 | 0.00 | 0.00 | 83 | 1010.3 |
| 20260509041800 | 52 | 53 | 0.0 | 0.0 | 0.00 | 0.00 | 0.00 | 83 | 1010.3 |
| 20260509041600 | 53 | 53 | 0.0 | 0.0 | 0.00 | 0.00 | 0.00 | 84 | 1010.3 |
| 20260509041506 | 53 | 53 | 0.0 | 0.0 | 0.00 | 0.00 | 0.00 | 84 | 1010.3 |
| 20260509041100 | 53 | 53 | 0.0 | 1.7 | 0.00 | 0.00 | 0.00 | 84 | 1010.3 |
| 20260509040900 | 53 | 53 | 0.0 | 1.7 | 0.00 | 0.00 | 0.00 | 84 | 1010.3 |
| 20260509040800 | 53 | 53 | 0.0 | 1.7 | 0.00 | 0.00 | 0.00 | 84 | 1010.3 |
| 20260509040659 | 53 | 53 | 0.0 | 1.7 | 0.00 | 0.00 | 0.00 | 84 | 1010.3 |
| 20260509040600 | 53 | 53 | 0.0 | 1.7 | 0.00 | 0.00 | 0.00 | 84 | 1010.3 |
| 20260509040504 | 53 | 53 | 0.0 | 1.7 | 0.00 | 0.00 | 0.00 | 85 | 1010.3 |
| 20260509040401 | 53 | 53 | 0.9 | 0.9 | 0.00 | 0.00 | 0.00 | 85 | 1010.3 |
| 20260509040300 | 53 | 53 | 0.0 | 0.9 | 0.00 | 0.00 | 0.00 | 85 | 1010.4 |
| 20260509040202 | 53 | 53 | 0.0 | 3.5 | 0.00 | 0.00 | 0.00 | 85 | 1010.4 |
| 20260509040008 | 53 | 53 | 0.0 | 3.5 | 0.00 | 0.00 | 0.00 | 85 | 1010.4 |
| 20260509035802 | 53 | 53 | 0.0 | 3.5 | 0.00 | 0.00 | 0.00 | 85 | 1010.6 |
| 20260509035703 | 53 | 53 | 0.9 | 3.5 | 0.00 | 0.00 | 0.00 | 85 | 1010.6 |
| 20260509035602 | 53 | 53 | 0.9 | 3.5 | 0.00 | 0.00 | 0.00 | 85 | 1010.6 |
| 20260509035507 | 53 | 53 | 0.0 | 3.5 | 0.00 | 0.00 | 0.00 | 85 | 1010.6 |
| 20260509035403 | 53 | 53 | 0.0 | 3.5 | 0.00 | 0.00 | 0.00 | 85 | 1010.7 |
| 20260509035306 | 53 | 53 | 0.0 | 3.5 | 0.00 | 0.00 | 0.00 | 85 | 1010.7 |
| 20260509035203 | 53 | 5 | 0.0 | 1.7 | 0.00 | 0.00 | 0.00 | 85 | 1010.7 |
| 20260509035102 | 53 | 5 | 0.0 | 1.7 | 0.00 | 0.00 | 0.00 | 85 | 1010.7 |
| 20260509035005 | 53 | 5 | 0.9 | 1.7 | 0.00 | 0.00 | 0.00 | 85 | 1010.8 |
| 20260509034903 | 53 | 5 | 0.0 | 1.7 | 0.00 | 0.00 | 0.00 | 85 | 1010.8 |
| 20260509034803 | 53 | 5 | 0.9 | 1.7 | 0.00 | 0.00 | 0.00 | 85 | 1010.9 |
| 20260509034703 | 53 | 5 | 0.9 | 1.7 | 0.00 | 0.00 | 0.00 | 85 | 1010.9 |
| 20260509034602 | 53 | 5 | 0.9 | 1.7 | 0.00 | 0.00 | 0.00 | 85 | 1011.0 |
| 20260509034506 | 53 | 5 | 0.9 | 1.7 | 0.00 | 0.00 | 0.00 | 85 | 1010.9 |
| 20260509034202 | 52 | 5 | 0.9 | 0.9 | 0.00 | 0.00 | 0.00 | 86 | 1010.9 |
| 20260509034006 | 52 | 5 | 0.0 | 0.0 | 0.00 | 0.00 | 0.00 | 86 | 1010.9 |
| 20260509033801 | 52 | 5 | 0.0 | 0.0 | 0.00 | 0.00 | 0.00 | 86 | 1010.9 |
| 20260509033702 | 52 | 5 | 0.0 | 0.0 | 0.00 | 0.00 | 0.00 | 86 | 1010.8 |
| 20260509033602 | 52 | 5 | 0.0 | 0.0 | 0.00 | 0.00 | 0.00 | 86 | 1010.9 |
| 20260509033506 | 52 | 5 | 0.0 | 0.0 | 0.00 | 0.00 | 0.00 | 86 | 1010.9 |
| 20260509033403 | 52 | 5 | 0.0 | 0.9 | 0.00 | 0.00 | 0.00 | 86 | 1010.9 |
| 20260509033202 | 52 | 5 | 0.0 | 0.9 | 0.00 | 0.00 | 0.00 | 86 | 1010.8 |
| 20260509032903 | 52 | 5 | 0.0 | 0.9 | 0.00 | 0.00 | 0.00 | 86 | 1010.7 |
| 20260509032803 | 52 | 5 | 0.0 | 0.9 | 0.00 | 0.00 | 0.00 | 86 | 1010.6 |
| 20260509032506 | 52 | 5 | 0.0 | 0.9 | 0.00 | 0.00 | 0.00 | 86 | 1010.6 |
| 20260509032401 | 52 | 5 | 0.9 | 0.9 | 0.00 | 0.00 | 0.00 | 86 | 1010.6 |
| 20260509032203 | 52 | 5 | 0.0 | 0.9 | 0.00 | 0.00 | 0.00 | 86 | 1010.7 |
| 20260509032102 | 52 | 5 | 0.0 | 0.9 | 0.00 | 0.00 | 0.00 | 86 | 1010.7 |
| 20260509032005 | 53 | 5 | 0.9 | 0.9 | 0.00 | 0.00 | 0.00 | 86 | 1010.7 |
| 20260509031902 | 53 | 5 | 0.0 | 1.7 | 0.00 | 0.00 | 0.00 | 86 | 1010.7 |
| 20260509031800 | 53 | 5 | 0.0 | 1.7 | 0.00 | 0.00 | 0.00 | 86 | 1010.8 |
| 20260509031702 | 53 | 5 | 0.0 | 1.7 | 0.00 | 0.00 | 0.00 | 86 | 1010.8 |
| 20260509031603 | 53 | 5 | 0.0 | 1.7 | 0.00 | 0.00 | 0.00 | 86 | 1010.8 |
| 20260509031505 | 53 | 5 | 0.0 | 1.7 | 0.00 | 0.00 | 0.00 | 86 | 1010.8 |
| 20260509031401 | 53 | 5 | 0.0 | 1.7 | 0.00 | 0.00 | 0.00 | 86 | 1010.7 |
| 20260509031302 | 53 | 5 | 0.0 | 1.7 | 0.00 | 0.00 | 0.00 | 86 | 1010.8 |
| 20260509031202 | 52 | 5 | 0.0 | 1.7 | 0.00 | 0.00 | 0.00 | 86 | 1010.8 |
| 20260509031102 | 52 | 5 | 0.0 | 1.7 | 0.00 | 0.00 | 0.00 | 86 | 1010.8 |
| 20260509031007 | 52 | 5 | 0.9 | 1.7 | 0.00 | 0.00 | 0.00 | 86 | 1010.9 |
| 20260509030903 | 52 | 5 | 0.0 | 1.7 | 0.00 | 0.00 | 0.00 | 86 | 1011.0 |
| 20260509030803 | 52 | 5 | 0.0 | 1.7 | 0.00 | 0.00 | 0.00 | 86 | 1011.0 |
| 20260509030701 | 52 | 5 | 0.0 | 1.7 | 0.00 | 0.00 | 0.00 | 86 | 1011.0 |
| 20260509030505 | 52 | 5 | 0.0 | 1.7 | 0.00 | 0.00 | 0.00 | 86 | 1011.1 |
| 20260509030402 | 52 | 5 | 0.0 | 1.7 | 0.00 | 0.00 | 0.00 | 86 | 1011.0 |
| 20260509030302 | 52 | 5 | 0.0 | 1.7 | 0.00 | 0.00 | 0.00 | 86 | 1011.0 |
| 20260509030202 | 52 | 5 | 0.0 | 1.7 | 0.00 | 0.00 | 0.00 | 86 | 1011.0 |
| 20260509030101 | 52 | 5 | 0.0 | 1.7 | 0.00 | 0.00 | 0.00 | 85 | 1011.0 |
| 20260509030005 | 52 | 5 | 0.9 | 1.7 | 0.00 | 0.00 | 0.00 | 85 | 1011.1 |
| 20260509025801 | 52 | 5 | 0.0 | 0.0 | 0.00 | 0.00 | 0.00 | 85 | 1011.1 |
| 20260509025701 | 52 | 5 | 0.0 | 0.0 | 0.00 | 0.00 | 0.00 | 85 | 1011.1 |
| 20260509025504 | 52 | 5 | 0.0 | 0.0 | 0.00 | 0.00 | 0.00 | 85 | 1011.0 |
| 20260509025400 | 52 | 5 | 0.0 | 0.0 | 0.00 | 0.00 | 0.00 | 85 | 1011.0 |
| 20260509025301 | 52 | 5 | 0.0 | 0.0 | 0.00 | 0.00 | 0.00 | 85 | 1011.0 |
| 20260509025201 | 52 | 5 | 0.0 | 0.0 | 0.00 | 0.00 | 0.00 | 85 | 1011.0 |
| 20260509025005 | 52 | 5 | 0.0 | 0.0 | 0.00 | 0.00 | 0.00 | 85 | 1011.0 |
| 20260509024901 | 52 | 5 | 0.0 | 0.0 | 0.00 | 0.00 | 0.00 | 85 | 1010.9 |
| 20260509024801 | 52 | 5 | 0.0 | 0.0 | 0.00 | 0.00 | 0.00 | 85 | 1010.9 |
| 20260509024702 | 52 | 5 | 0.0 | 0.0 | 0.00 | 0.00 | 0.00 | 85 | 1010.9 |
| 20260509024600 | 52 | 5 | 0.0 | 0.0 | 0.00 | 0.00 | 0.00 | 85 | 1010.9 |
| 20260509024401 | 52 | 5 | 0.0 | 0.0 | 0.00 | 0.00 | 0.00 | 85 | 1010.8 |
| 20260509024300 | 52 | 5 | 0.0 | 0.0 | 0.00 | 0.00 | 0.00 | 85 | 1010.8 |
| 20260509024100 | 52 | 5 | 0.0 | 0.0 | 0.00 | 0.00 | 0.00 | 85 | 1010.7 |
| 20260509024005 | 52 | 5 | 0.0 | 0.0 | 0.00 | 0.00 | 0.00 | 85 | 1010.7 |
| 20260509023900 | 52 | 5 | 0.0 | 0.0 | 0.00 | 0.00 | 0.00 | 85 | 1010.7 |
| 20260509023801 | 52 | 5 | 0.0 | 0.0 | 0.00 | 0.00 | 0.00 | 85 | 1010.7 |
| 20260509023701 | 52 | 5 | 0.0 | 0.0 | 0.00 | 0.00 | 0.00 | 85 | 1010.6 |
| 20260509023601 | 52 | 5 | 0.0 | 0.0 | 0.00 | 0.00 | 0.00 | 85 | 1010.5 |
| 20260509023505 | 52 | 5 | 0.0 | 0.0 | 0.00 | 0.00 | 0.00 | 85 | 1010.5 |
| 20260509023401 | 52 | 5 | 0.0 | 0.0 | 0.00 | 0.00 | 0.00 | 84 | 1010.4 |
| 20260509023301 | 52 | 5 | 0.0 | 0.0 | 0.00 | 0.00 | 0.00 | 84 | 1010.4 |
| 20260509023200 | 52 | 5 | 0.0 | 0.0 | 0.00 | 0.00 | 0.00 | 84 | 1010.4 |
| 20260509023100 | 52 | 5 | 0.0 | 0.0 | 0.00 | 0.00 | 0.00 | 84 | 1010.3 |
| 20260509023005 | 52 | 5 | 0.0 | 0.0 | 0.00 | 0.00 | 0.00 | 84 | 1010.3 |
| 20260509022800 | 53 | 5 | 0.0 | 0.0 | 0.00 | 0.00 | 0.00 | 84 | 1010.3 |
| 20260509022505 | 53 | 5 | 0.0 | 0.0 | 0.00 | 0.00 | 0.00 | 84 | 1010.2 |
| 20260509022401 | 53 | 5 | 0.0 | 0.0 | 0.00 | 0.00 | 0.00 | 84 | 1010.2 |
| 20260509022301 | 53 | 5 | 0.0 | 0.0 | 0.00 | 0.00 | 0.00 | 83 | 1010.3 |
| 20260509022200 | 53 | 5 | 0.0 | 0.0 | 0.00 | 0.00 | 0.00 | 83 | 1010.3 |
| 20260509022101 | 53 | 5 | 0.0 | 0.0 | 0.00 | 0.00 | 0.00 | 83 | 1010.3 |
| 20260509021901 | 53 | 5 | 0.0 | 0.0 | 0.00 | 0.00 | 0.00 | 83 | 1010.4 |
| 20260509021801 | 53 | 5 | 0.0 | 0.0 | 0.00 | 0.00 | 0.00 | 83 | 1010.4 |
| 20260509021602 | 53 | 5 | 0.0 | 0.0 | 0.00 | 0.00 | 0.00 | 83 | 1010.4 |
| 20260509021506 | 53 | 5 | 0.0 | 0.0 | 0.00 | 0.00 | 0.00 | 83 | 1010.4 |
| 20260509021401 | 53 | 5 | 0.0 | 0.0 | 0.00 | 0.00 | 0.00 | 83 | 1010.4 |
| 20260509021302 | 53 | 5 | 0.0 | 0.0 | 0.00 | 0.00 | 0.00 | 83 | 1010.4 |
| 20260509021202 | 53 | 5 | 0.0 | 0.0 | 0.00 | 0.00 | 0.00 | 83 | 1010.3 |
| 20260509021101 | 53 | 5 | 0.0 | 0.0 | 0.00 | 0.00 | 0.00 | 82 | 1010.4 |
| 20260509021005 | 53 | 5 | 0.0 | 0.0 | 0.00 | 0.00 | 0.00 | 82 | 1010.3 |
| 20260509020900 | 53 | 5 | 0.0 | 0.0 | 0.00 | 0.00 | 0.00 | 82 | 1010.3 |
| 20260509020703 | 53 | 5 | 0.0 | 0.0 | 0.00 | 0.00 | 0.00 | 82 | 1010.4 |
| 20260509020601 | 53 | 5 | 0.0 | 0.0 | 0.00 | 0.00 | 0.00 | 82 | 1010.4 |
| 20260509020505 | 53 | 5 | 0.0 | 0.0 | 0.00 | 0.00 | 0.00 | 82 | 1010.3 |
| 20260509020400 | 53 | 5 | 0.0 | 0.0 | 0.00 | 0.00 | 0.00 | 82 | 1010.3 |
| 20260509020301 | 53 | 5 | 0.0 | 0.0 | 0.00 | 0.00 | 0.00 | 82 | 1010.3 |
| 20260509020202 | 54 | 5 | 0.0 | 0.0 | 0.00 | 0.00 | 0.00 | 82 | 1010.3 |
| 20260509020006 | 54 | 5 | 0.0 | 0.0 | 0.00 | 0.00 | 0.00 | 82 | 1010.3 |
| 20260509015902 | 54 | 5 | 0.0 | 0.0 | 0.00 | 0.00 | 0.00 | 82 | 1010.4 |
| 20260509015801 | 54 | 5 | 0.0 | 0.0 | 0.00 | 0.00 | 0.00 | 82 | 1010.4 |
| 20260509015702 | 54 | 5 | 0.0 | 0.0 | 0.00 | 0.00 | 0.00 | 82 | 1010.4 |
| 20260509015603 | 54 | 5 | 0.0 | 0.0 | 0.00 | 0.00 | 0.00 | 81 | 1010.4 |
| 20260509015505 | 54 | 5 | 0.0 | 0.0 | 0.00 | 0.00 | 0.00 | 81 | 1010.4 |
| 20260509015306 | 54 | 5 | 0.0 | 0.0 | 0.00 | 0.00 | 0.00 | 81 | 1010.5 |
| 20260509015202 | 54 | 5 | 0.0 | 0.0 | 0.00 | 0.00 | 0.00 | 81 | 1010.5 |
| 20260509015102 | 54 | 5 | 0.0 | 0.0 | 0.00 | 0.00 | 0.00 | 81 | 1010.5 |
| 20260509015007 | 54 | 5 | 0.0 | 0.0 | 0.00 | 0.00 | 0.00 | 81 | 1010.5 |
| 20260509014902 | 54 | 5 | 0.0 | 0.0 | 0.00 | 0.00 | 0.00 | 81 | 1010.5 |
| 20260509014802 | 54 | 5 | 0.0 | 0.0 | 0.00 | 0.00 | 0.00 | 80 | 1010.5 |
| 20260509014702 | 54 | 5 | 0.0 | 0.0 | 0.00 | 0.00 | 0.00 | 80 | 1010.5 |
| 20260509014602 | 54 | 5 | 0.0 | 0.0 | 0.00 | 0.00 | 0.00 | 81 | 1010.5 |
| 20260509014506 | 54 | 5 | 0.0 | 0.0 | 0.00 | 0.00 | 0.00 | 81 | 1010.5 |
| 20260509014301 | 54 | 5 | 0.0 | 0.0 | 0.00 | 0.00 | 0.00 | 81 | 1010.6 |
| 20260509014204 | 54 | 5 | 0.0 | 0.0 | 0.00 | 0.00 | 0.00 | 81 | 1010.5 |
| 20260509014103 | 54 | 5 | 0.0 | 0.0 | 0.00 | 0.00 | 0.00 | 81 | 1010.5 |
| 20260509014006 | 54 | 5 | 0.0 | 0.0 | 0.00 | 0.00 | 0.00 | 81 | 1010.5 |
| 20260509013902 | 54 | 5 | 0.0 | 0.0 | 0.00 | 0.00 | 0.00 | 81 | 1010.4 |
| 20260509013802 | 54 | 5 | 0.0 | 0.0 | 0.00 | 0.00 | 0.00 | 81 | 1010.4 |
| 20260509013702 | 54 | 5 | 0.0 | 0.0 | 0.00 | 0.00 | 0.00 | 81 | 1010.5 |
| 20260509013602 | 54 | 5 | 0.0 | 0.0 | 0.00 | 0.00 | 0.00 | 81 | 1010.5 |
| 20260509013506 | 54 | 5 | 0.0 | 0.0 | 0.00 | 0.00 | 0.00 | 81 | 1010.5 |
| 20260509013402 | 54 | 5 | 0.0 | 0.0 | 0.00 | 0.00 | 0.00 | 82 | 1010.5 |
| 20260509013202 | 54 | 5 | 0.0 | 0.0 | 0.00 | 0.00 | 0.00 | 81 | 1010.4 |
| 20260509013102 | 54 | 5 | 0.0 | 0.0 | 0.00 | 0.00 | 0.00 | 80 | 1010.5 |
| 20260509013006 | 54 | 5 | 0.0 | 0.0 | 0.00 | 0.00 | 0.00 | 79 | 1010.5 |
| 20260509012901 | 54 | 5 | 0.0 | 0.0 | 0.00 | 0.00 | 0.00 | 80 | 1010.5 |
| 20260509012801 | 54 | 5 | 0.0 | 0.0 | 0.00 | 0.00 | 0.00 | 80 | 1010.4 |
| 20260509012702 | 54 | 5 | 0.0 | 0.0 | 0.00 | 0.00 | 0.00 | 80 | 1010.4 |
| 20260509012603 | 54 | 5 | 0.0 | 0.0 | 0.00 | 0.00 | 0.00 | 81 | 1010.4 |
| 20260509012506 | 54 | 5 | 0.0 | 0.0 | 0.00 | 0.00 | 0.00 | 81 | 1010.4 |
| 20260509012402 | 54 | 5 | 0.0 | 0.0 | 0.00 | 0.00 | 0.00 | 81 | 1010.4 |
| 20260509012302 | 54 | 5 | 0.0 | 0.0 | 0.00 | 0.00 | 0.00 | 81 | 1010.4 |
| 20260509012202 | 54 | 5 | 0.0 | 0.0 | 0.00 | 0.00 | 0.00 | 80 | 1010.4 |
| 20260509012102 | 54 | 5 | 0.0 | 0.0 | 0.00 | 0.00 | 0.00 | 78 | 1010.3 |
| 20260509012005 | 54 | 5 | 0.0 | 0.0 | 0.00 | 0.00 | 0.00 | 78 | 1010.4 |
| 20260509011701 | 54 | 5 | 0.0 | 0.0 | 0.00 | 0.00 | 0.00 | 78 | 1010.3 |
| 20260509011602 | 54 | 5 | 0.0 | 0.0 | 0.00 | 0.00 | 0.00 | 78 | 1010.3 |
| 20260509011506 | 55 | 5 | 0.0 | 0.0 | 0.00 | 0.00 | 0.00 | 78 | 1010.3 |
| 20260509011301 | 55 | 5 | 0.0 | 0.0 | 0.00 | 0.00 | 0.00 | 78 | 1010.3 |
| 20260509011201 | 55 | 5 | 0.0 | 0.0 | 0.00 | 0.00 | 0.00 | 78 | 1010.3 |
| 20260509011102 | 55 | 5 | 0.0 | 0.0 | 0.00 | 0.00 | 0.00 | 78 | 1010.2 |
| 20260509011005 | 55 | 5 | 0.0 | 0.0 | 0.00 | 0.00 | 0.00 | 78 | 1010.2 |
| 20260509010902 | 55 | 5 | 0.0 | 0.0 | 0.00 | 0.00 | 0.00 | 78 | 1010.2 |
| 20260509010802 | 55 | 5 | 0.0 | 0.0 | 0.00 | 0.00 | 0.00 | 78 | 1010.2 |
| 20260509010702 | 55 | 5 | 0.0 | 0.0 | 0.00 | 0.00 | 0.00 | 78 | 1010.2 |
| 20260509010603 | 55 | 5 | 0.0 | 0.0 | 0.00 | 0.00 | 0.00 | 78 | 1010.2 |
| 20260509010505 | 55 | 5 | 0.0 | 0.0 | 0.00 | 0.00 | 0.00 | 78 | 1010.2 |
| 20260509010402 | 55 | 5 | 0.0 | 0.0 | 0.00 | 0.00 | 0.00 | 78 | 1010.2 |
| 20260509010203 | 55 | 5 | 0.0 | 0.0 | 0.00 | 0.00 | 0.00 | 77 | 1010.2 |
| 20260509010101 | 55 | 5 | 0.0 | 0.0 | 0.00 | 0.00 | 0.00 | 78 | 1010.2 |
| 20260509010006 | 55 | 5 | 0.0 | 0.0 | 0.00 | 0.00 | 0.00 | 77 | 1010.2 |
| 20260509005901 | 55 | 5 | 0.0 | 0.0 | 0.00 | 0.00 | 0.00 | 77 | 1010.2 |
| 20260509005801 | 55 | 5 | 0.0 | 0.0 | 0.00 | 0.00 | 0.00 | 77 | 1010.2 |
| 20260509005702 | 55 | 5 | 0.0 | 0.0 | 0.00 | 0.00 | 0.00 | 77 | 1010.2 |
| 20260509005600 | 55 | 5 | 0.0 | 0.0 | 0.00 | 0.00 | 0.00 | 76 | 1010.2 |
| 20260509005506 | 55 | 5 | 0.0 | 0.0 | 0.00 | 0.00 | 0.00 | 76 | 1010.2 |
| 20260509005402 | 55 | 5 | 0.0 | 0.0 | 0.00 | 0.00 | 0.00 | 76 | 1010.2 |
| 20260509005300 | 55 | 5 | 0.0 | 0.0 | 0.00 | 0.00 | 0.00 | 76 | 1010.2 |
| 20260509005202 | 55 | 5 | 0.0 | 0.0 | 0.00 | 0.00 | 0.00 | 76 | 1010.2 |
| 20260509005101 | 55 | 5 | 0.0 | 0.0 | 0.00 | 0.00 | 0.00 | 77 | 1010.2 |
| 20260509004901 | 55 | 5 | 0.0 | 0.0 | 0.00 | 0.00 | 0.00 | 77 | 1010.2 |
| 20260509004701 | 55 | 5 | 0.0 | 0.0 | 0.00 | 0.00 | 0.00 | 76 | 1010.2 |
| 20260509004602 | 55 | 5 | 0.0 | 0.0 | 0.00 | 0.00 | 0.00 | 76 | 1010.2 |
| 20260509004506 | 55 | 5 | 0.0 | 0.0 | 0.00 | 0.00 | 0.00 | 76 | 1010.2 |
| 20260509004401 | 55 | 5 | 0.0 | 0.0 | 0.00 | 0.00 | 0.00 | 76 | 1010.2 |
| 20260509004301 | 55 | 5 | 0.0 | 0.0 | 0.00 | 0.00 | 0.00 | 76 | 1010.2 |
| 20260509004200 | 55 | 5 | 0.0 | 0.0 | 0.00 | 0.00 | 0.00 | 75 | 1010.0 |
| 20260509004101 | 55 | 5 | 0.0 | 0.0 | 0.00 | 0.00 | 0.00 | 75 | 1010.1 |
| 20260509003902 | 55 | 5 | 0.0 | 0.0 | 0.00 | 0.00 | 0.00 | 75 | 1010.1 |
| 20260509003802 | 55 | 5 | 0.0 | 0.0 | 0.00 | 0.00 | 0.00 | 75 | 1010.1 |
| 20260509003700 | 55 | 5 | 0.0 | 0.0 | 0.00 | 0.00 | 0.00 | 75 | 1010.1 |
| 20260509003601 | 55 | 5 | 0.0 | 0.0 | 0.00 | 0.00 | 0.00 | 75 | 1010.1 |
| 20260509003504 | 56 | 5 | 0.0 | 0.0 | 0.00 | 0.00 | 0.00 | 74 | 1010.1 |
| 20260509003401 | 56 | 5 | 0.0 | 0.0 | 0.00 | 0.00 | 0.00 | 74 | 1010.1 |
| 20260509003301 | 56 | 5 | 0.0 | 0.0 | 0.00 | 0.00 | 0.00 | 74 | 1010.1 |
| 20260509003201 | 56 | 5 | 0.0 | 0.0 | 0.00 | 0.00 | 0.00 | 74 | 1010.1 |
| 20260509003005 | 56 | 5 | 0.0 | 0.0 | 0.00 | 0.00 | 0.00 | 74 | 1010.1 |
| 20260509002900 | 56 | 5 | 0.0 | 0.0 | 0.00 | 0.00 | 0.00 | 74 | 1010.1 |
| 20260509002800 | 56 | 5 | 0.0 | 0.0 | 0.00 | 0.00 | 0.00 | 74 | 1010.1 |
| 20260509002700 | 56 | 5 | 0.0 | 0.0 | 0.00 | 0.00 | 0.00 | 74 | 1010.2 |
| 20260509002505 | 56 | 5 | 0.0 | 0.0 | 0.00 | 0.00 | 0.00 | 73 | 1010.1 |
| 20260509002401 | 56 | 5 | 0.0 | 0.0 | 0.00 | 0.00 | 0.00 | 73 | 1010.1 |
| 20260509002306 | 56 | 5 | 0.0 | 0.0 | 0.00 | 0.00 | 0.00 | 73 | 1010.1 |
| 20260509002202 | 56 | 5 | 0.0 | 0.0 | 0.00 | 0.00 | 0.00 | 73 | 1010.1 |
| 20260509002101 | 56 | 5 | 0.0 | 0.9 | 0.00 | 0.00 | 0.00 | 73 | 1010.1 |
| 20260509001903 | 56 | 5 | 0.0 | 1.7 | 0.00 | 0.00 | 0.00 | 72 | 1010.1 |
| 20260509001702 | 56 | 5 | 0.0 | 1.7 | 0.00 | 0.00 | 0.00 | 71 | 1010.0 |
| 20260509001602 | 56 | 5 | 0.0 | 1.7 | 0.00 | 0.00 | 0.00 | 72 | 1009.9 |
| 20260509001505 | 56 | 5 | 0.0 | 1.7 | 0.00 | 0.00 | 0.00 | 73 | 1010.0 |
| 20260509001401 | 56 | 5 | 0.0 | 1.7 | 0.00 | 0.00 | 0.00 | 73 | 1010.0 |
| 20260509001301 | 56 | 5 | 0.0 | 1.7 | 0.00 | 0.00 | 0.00 | 73 | 1010.0 |
| 20260509001102 | 56 | 5 | 1.7 | 1.7 | 0.00 | 0.00 | 0.00 | 71 | 1010.0 |
| 20260509001006 | 56 | 5 | 0.0 | 1.7 | 0.00 | 0.00 | 0.00 | 71 | 1010.0 |
| 20260509000900 | 56 | 5 | 0.9 | 0.9 | 0.00 | 0.00 | 0.00 | 72 | 1010.0 |
| 20260509000800 | 56 | 5 | 0.0 | 1.7 | 0.00 | 0.00 | 0.00 | 71 | 1010.0 |
| 20260509000701 | 56 | 5 | 0.0 | 1.7 | 0.00 | 0.00 | 0.00 | 71 | 1010.0 |
| 20260509000505 | 57 | 5 | 0.0 | 1.7 | 0.00 | 0.00 | 0.00 | 72 | 1010.1 |
| 20260509000204 | 57 | 5 | 0.0 | 1.7 | 0.00 | 0.00 | 0.00 | 71 | 1010.0 |
| 20260509000100 | 57 | 5 | 0.0 | 1.7 | 0.00 | 0.00 | 0.00 | 70 | 1010.0 |
| 20260508235903 | 57 | 5 | 0.0 | 1.7 | 0.00 | 0.00 | 0.00 | 70 | 1009.9 |
| 20260508235803 | 57 | 5 | 0.9 | 1.7 | 0.00 | 0.00 | 0.00 | 70 | 1009.9 |
| 20260508235702 | 57 | 5 | 0.9 | 1.7 | 0.00 | 0.00 | 0.00 | 70 | 1009.9 |
| 20260508235406 | 57 | 5 | 0.0 | 1.7 | 0.00 | 0.00 | 0.00 | 70 | 1009.9 |
| 20260508235306 | 57 | 5 | 0.0 | 1.7 | 0.00 | 0.00 | 0.00 | 69 | 1009.9 |
| 20260508235101 | 58 | 5 | 0.9 | 0.9 | 0.00 | 0.00 | 0.00 | 68 | 1009.8 |
| 20260508235006 | 58 | 5 | 0.0 | 0.9 | 0.00 | 0.00 | 0.00 | 68 | 1009.8 |
| 20260508234901 | 58 | 5 | 0.0 | 0.9 | 0.00 | 0.00 | 0.00 | 68 | 1009.8 |
| 20260508234801 | 58 | 5 | 0.0 | 0.9 | 0.00 | 0.00 | 0.00 | 68 | 1009.8 |
| 20260508234703 | 58 | 5 | 0.0 | 0.9 | 0.00 | 0.00 | 0.00 | 67 | 1009.7 |
| 20260508234600 | 58 | 5 | 0.0 | 0.9 | 0.00 | 0.00 | 0.00 | 67 | 1009.7 |
| 20260508234505 | 58 | 5 | 0.0 | 0.9 | 0.00 | 0.00 | 0.00 | 67 | 1009.7 |
| 20260508234403 | 58 | 5 | 0.0 | 1.7 | 0.00 | 0.00 | 0.00 | 66 | 1009.8 |
| 20260508234301 | 59 | 5 | 0.0 | 1.7 | 0.00 | 0.00 | 0.00 | 66 | 1009.8 |
| 20260508234201 | 59 | 5 | 0.0 | 1.7 | 0.00 | 0.00 | 0.00 | 66 | 1009.7 |
| 20260508234102 | 59 | 5 | 0.0 | 1.7 | 0.00 | 0.00 | 0.00 | 66 | 1009.7 |
| 20260508234005 | 59 | 5 | 0.9 | 1.7 | 0.00 | 0.00 | 0.00 | 66 | 1009.7 |
| 20260508233901 | 59 | 5 | 0.0 | 1.7 | 0.00 | 0.00 | 0.00 | 65 | 1009.6 |
| 20260508233802 | 59 | 5 | 0.9 | 1.7 | 0.00 | 0.00 | 0.00 | 65 | 1009.7 |
| 20260508233701 | 59 | 5 | 0.0 | 1.7 | 0.00 | 0.00 | 0.00 | 65 | 1009.6 |
| 20260508233602 | 59 | 5 | 0.0 | 1.7 | 0.00 | 0.00 | 0.00 | 66 | 1009.7 |
| 20260508233505 | 59 | 5 | 0.0 | 1.7 | 0.00 | 0.00 | 0.00 | 65 | 1009.6 |
| 20260508233301 | 59 | 5 | 0.0 | 1.7 | 0.00 | 0.00 | 0.00 | 65 | 1009.5 |
| 20260508233202 | 59 | 5 | 0.0 | 1.7 | 0.00 | 0.00 | 0.00 | 65 | 1009.5 |
| 20260508233103 | 60 | 5 | 0.0 | 1.7 | 0.00 | 0.00 | 0.00 | 64 | 1009.5 |
| 20260508232901 | 60 | 5 | 0.0 | 1.7 | 0.00 | 0.00 | 0.00 | 64 | 1009.5 |
| 20260508232802 | 60 | 5 | 0.9 | 1.7 | 0.00 | 0.00 | 0.00 | 64 | 1009.5 |
| 20260508232703 | 60 | 5 | 0.0 | 4.3 | 0.00 | 0.00 | 0.00 | 64 | 1009.5 |
| 20260508232601 | 60 | 5 | 0.0 | 4.3 | 0.00 | 0.00 | 0.00 | 63 | 1009.5 |
| 20260508232505 | 60 | 5 | 0.0 | 4.3 | 0.00 | 0.00 | 0.00 | 62 | 1009.4 |
| 20260508232401 | 60 | 5 | 0.0 | 4.3 | 0.00 | 0.00 | 0.00 | 62 | 1009.5 |
| 20260508232306 | 60 | 5 | 0.0 | 4.3 | 0.00 | 0.00 | 0.00 | 63 | 1009.4 |
| 20260508232204 | 60 | 5 | 0.0 | 4.3 | 0.00 | 0.00 | 0.00 | 62 | 1009.4 |
| 20260508232006 | 60 | 5 | 0.0 | 4.3 | 0.00 | 0.00 | 0.00 | 61 | 1009.4 |
| 20260508231802 | 60 | 5 | 1.7 | 4.3 | 0.00 | 0.00 | 0.00 | 61 | 1009.4 |
| 20260508231702 | 60 | 12 | 4.3 | 4.3 | 0.00 | 0.00 | 0.00 | 61 | 1009.4 |
| 20260508231602 | 60 | 26 | 2.6 | 4.3 | 0.00 | 0.00 | 0.00 | 61 | 1009.4 |
| 20260508231506 | 60 | 5 | 1.7 | 4.3 | 0.00 | 0.00 | 0.00 | 61 | 1009.4 |
| 20260508231402 | 60 | 321 | 1.7 | 3.5 | 0.00 | 0.00 | 0.00 | 61 | 1009.4 |
| 20260508231303 | 60 | 321 | 0.9 | 3.5 | 0.00 | 0.00 | 0.00 | 61 | 1009.4 |
| 20260508231200 | 60 | 321 | 0.9 | 3.5 | 0.00 | 0.00 | 0.00 | 61 | 1009.4 |
| 20260508231005 | 60 | 321 | 1.7 | 3.5 | 0.00 | 0.00 | 0.00 | 61 | 1009.4 |
| 20260508230902 | 60 | 253 | 1.7 | 2.6 | 0.00 | 0.00 | 0.00 | 63 | 1009.4 |
| 20260508230803 | 60 | 253 | 0.9 | 1.7 | 0.00 | 0.00 | 0.00 | 62 | 1009.4 |
| 20260508230702 | 60 | 253 | 0.9 | 1.7 | 0.00 | 0.00 | 0.00 | 61 | 1009.4 |
| 20260508230505 | 60 | 253 | 0.0 | 1.7 | 0.00 | 0.00 | 0.00 | 61 | 1009.4 |
| 20260508230401 | 60 | 253 | 1.7 | 1.7 | 0.00 | 0.00 | 0.00 | 61 | 1009.4 |
| 20260508230303 | 60 | 253 | 1.7 | 1.7 | 0.00 | 0.00 | 0.00 | 62 | 1009.4 |
| 20260508230202 | 60 | 253 | 0.0 | 1.7 | 0.00 | 0.00 | 0.00 | 62 | 1009.4 |
| 20260508225901 | 60 | 253 | 0.0 | 1.7 | 0.00 | 0.00 | 0.00 | 61 | 1009.5 |
| 20260508225800 | 60 | 253 | 0.9 | 1.7 | 0.00 | 0.00 | 0.00 | 62 | 1009.4 |
| 20260508225701 | 60 | 253 | 0.9 | 1.7 | 0.00 | 0.00 | 0.00 | 63 | 1009.4 |
| 20260508225602 | 60 | 253 | 1.7 | 1.7 | 0.00 | 0.00 | 0.00 | 61 | 1009.4 |
| 20260508225506 | 60 | 253 | 1.7 | 1.7 | 0.00 | 0.00 | 0.00 | 61 | 1009.5 |
| 20260508225401 | 60 | 253 | 0.9 | 1.7 | 0.00 | 0.00 | 0.00 | 61 | 1009.4 |
| 20260508225301 | 60 | 253 | 0.9 | 1.7 | 0.00 | 0.00 | 0.00 | 62 | 1009.5 |
| 20260508225201 | 60 | 253 | 0.9 | 1.7 | 0.00 | 0.00 | 0.00 | 62 | 1009.5 |
| 20260508225101 | 60 | 253 | 0.0 | 0.0 | 0.00 | 0.00 | 0.00 | 63 | 1009.5 |
| 20260508225004 | 60 | 253 | 0.0 | 0.0 | 0.00 | 0.00 | 0.00 | 62 | 1009.5 |
| 20260508224901 | 60 | 253 | 0.0 | 0.0 | 0.00 | 0.00 | 0.00 | 62 | 1009.5 |
| 20260508224800 | 60 | 253 | 0.0 | 0.0 | 0.00 | 0.00 | 0.00 | 61 | 1009.5 |
| 20260508224702 | 60 | 253 | 0.0 | 0.0 | 0.00 | 0.00 | 0.00 | 61 | 1009.4 |